Observation data for Rotan on 12/09/2018      Previous  Date       Current Mesonet Observations  Soil Data  Daily Summary Page  Observations in Plain Language
KRO1 090600Z 30007KT M01/M02 A3032 RMK A01 T10051018  RH  092%=      5-min Rain = 0
KRO1 090601Z 30008KT M01/M02 A3032 RMK A01 T10061018  RH  092%=      5-min Rain = 0
KRO1 090602Z 30007KT M01/M02 A3032 RMK A01 T10061018  RH  092%=      5-min Rain = 0
KRO1 090603Z 30007KT M01/M02 A3032 RMK A01 T10061017  RH  092%=      5-min Rain = 0
KRO1 090604Z 30008KT M01/M02 A3032 RMK A01 T10071018  RH  092%=      5-min Rain = 0
KRO1 090605Z 30007KT M01/M02 A3032 RMK A01 T10071017  RH  092%=      5-min Rain = 0
KRO1 090606Z 30007KT M01/M02 A3032 RMK A01 T10061017  RH  093%=      5-min Rain = 0
KRO1 090607Z 30008KT M01/M02 A3032 RMK A01 T10071017  RH  093%=      5-min Rain = 0
KRO1 090608Z 30008KT M01/M02 A3032 RMK A01 T10071017  RH  093%=      5-min Rain = 0
KRO1 090609Z 30008KT M01/M02 A3032 RMK A01 T10061017  RH  093%=      5-min Rain = 0
KRO1 090610Z 30008KT M01/M02 A3032 RMK A01 T10071017  RH  093%=      5-min Rain = 0
KRO1 090611Z 30008KT M01/M02 A3032 RMK A01 T10071017  RH  093%=      5-min Rain = 0
KRO1 090612Z 30008KT M01/M02 A3032 RMK A01 T10071017  RH  093%=      5-min Rain = 0
KRO1 090613Z 30008KT M01/M02 A3032 RMK A01 T10061016  RH  093%=      5-min Rain = 0
KRO1 090614Z 29008KT M01/M02 A3032 RMK A01 T10061016  RH  093%=      5-min Rain = 0
KRO1 090615Z 29008KT M01/M02 A3032 RMK A01 T10061016  RH  093%=      5-min Rain = 0
KRO1 090616Z 29008KT M01/M02 A3032 RMK A01 T10051016  RH  092%=      5-min Rain = 0
KRO1 090617Z 29008KT M01/M02 A3032 RMK A01 T10061017  RH  092%=      5-min Rain = 0
KRO1 090618Z 29008KT M01/M02 A3032 RMK A01 T10061017  RH  092%=      5-min Rain = 0
KRO1 090619Z 29007KT M01/M02 A3032 RMK A01 T10061017  RH  092%=      5-min Rain = 0
KRO1 090620Z 29008KT M01/M02 A3032 RMK A01 T10061017  RH  092%=      5-min Rain = 0
KRO1 090621Z 29007KT M01/M02 A3032 RMK A01 T10071018  RH  092%=      5-min Rain = 0
KRO1 090622Z 29007KT M01/M02 A3032 RMK A01 T10071018  RH  092%=      5-min Rain = 0
KRO1 090623Z 29007KT M01/M02 A3032 RMK A01 T10071018  RH  092%=      5-min Rain = 0
KRO1 090624Z 30007KT M01/M02 A3032 RMK A01 T10081018  RH  092%=      5-min Rain = 0
KRO1 090625Z 30008KT M01/M02 A3032 RMK A01 T10081018  RH  093%=      5-min Rain = 0
KRO1 090626Z 30007KT M01/M02 A3032 RMK A01 T10081019  RH  093%=      5-min Rain = 0
KRO1 090627Z 30008KT M01/M02 A3032 RMK A01 T10081018  RH  093%=      5-min Rain = 0
KRO1 090628Z 30007KT M01/M02 A3032 RMK A01 T10081018  RH  093%=      5-min Rain = 0
KRO1 090629Z 30007KT M01/M02 A3032 RMK A01 T10081018  RH  093%=      5-min Rain = 0
KRO1 090630Z 30008KT M01/M02 A3032 RMK A01 T10081018  RH  093%=      5-min Rain = 0
KRO1 090631Z 30008KT M01/M02 A3032 RMK A01 T10081018  RH  093%=      5-min Rain = 0
KRO1 090632Z 30008KT M01/M02 A3032 RMK A01 T10081018  RH  093%=      5-min Rain = 0
KRO1 090633Z 30007KT M01/M02 A3032 RMK A01 T10081018  RH  093%=      5-min Rain = 0
KRO1 090634Z 30007KT M01/M02 A3032 RMK A01 T10081018  RH  093%=      5-min Rain = 0
KRO1 090635Z 30007KT M01/M02 A3032 RMK A01 T10081018  RH  093%=      5-min Rain = 0
KRO1 090636Z 30007KT M01/M02 A3032 RMK A01 T10071018  RH  093%=      5-min Rain = 0
KRO1 090637Z 30008KT M01/M02 A3032 RMK A01 T10071017  RH  093%=      5-min Rain = 0
KRO1 090638Z 30008KT M01/M02 A3032 RMK A01 T10071018  RH  093%=      5-min Rain = 0
KRO1 090639Z 30007KT M01/M02 A3032 RMK A01 T10071017  RH  093%=      5-min Rain = 0
KRO1 090640Z 30007KT M01/M02 A3032 RMK A01 T10071018  RH  092%=      5-min Rain = 0
KRO1 090641Z 30008KT M01/M02 A3032 RMK A01 T10071018  RH  092%=      5-min Rain = 0
KRO1 090642Z 30008KT M01/M02 A3032 RMK A01 T10071018  RH  092%=      5-min Rain = 0
KRO1 090643Z 30007KT M01/M02 A3032 RMK A01 T10061017  RH  093%=      5-min Rain = 0
KRO1 090644Z 30007KT M01/M02 A3032 RMK A01 T10061017  RH  092%=      5-min Rain = 0
KRO1 090645Z 30006KT M01/M02 A3032 RMK A01 T10061017  RH  092%=      5-min Rain = 0
KRO1 090646Z 30008KT M01/M02 A3032 RMK A01 T10061017  RH  092%=      5-min Rain = 0
KRO1 090647Z 30007KT M01/M02 A3032 RMK A01 T10061017  RH  092%=      5-min Rain = 0
KRO1 090648Z 30006KT M01/M02 A3032 RMK A01 T10061017  RH  092%=      5-min Rain = 0
KRO1 090649Z 30007KT M01/M02 A3032 RMK A01 T10061017  RH  092%=      5-min Rain = 0
KRO1 090650Z 30007KT M01/M02 A3032 RMK A01 T10061017  RH  092%=      5-min Rain = 0
KRO1 090651Z 30007KT M01/M02 A3032 RMK A01 T10061017  RH  092%=      5-min Rain = 0
KRO1 090652Z 30007KT M01/M02 A3032 RMK A01 T10051016  RH  092%=      5-min Rain = 0
KRO1 090653Z 30007KT M01/M02 A3032 RMK A01 T10051017  RH  092%=      5-min Rain = 0
KRO1 090654Z 30007KT M01/M02 A3032 RMK A01 T10051017  RH  092%=      5-min Rain = 0
KRO1 090655Z 30007KT M01/M02 A3032 RMK A01 T10051017  RH  092%=      5-min Rain = 0
KRO1 090656Z 29007KT M01/M02 A3032 RMK A01 T10051017  RH  092%=      5-min Rain = 0
KRO1 090657Z 29007KT M01/M02 A3032 RMK A01 T10051017  RH  092%=      5-min Rain = 0
KRO1 090658Z 29007KT M01/M02 A3032 RMK A01 T10051017  RH  092%=      5-min Rain = 0
KRO1 090659Z 29007KT M01/M02 A3032 RMK A01 T10061018  RH  092%=      5-min Rain = 0
KRO1 090700Z 29007KT M01/M02 A3032 RMK A01 T10061018  RH  092%=      5-min Rain = 0
KRO1 090701Z 29007KT M01/M02 A3032 RMK A01 T10071018  RH  092%=      5-min Rain = 0
KRO1 090702Z 29007KT M01/M02 A3032 RMK A01 T10071019  RH  092%=      5-min Rain = 0
KRO1 090703Z 29007KT M01/M02 A3032 RMK A01 T10071018  RH  092%=      5-min Rain = 0
KRO1 090704Z 29006KT M01/M02 A3032 RMK A01 T10071018  RH  092%=      5-min Rain = 0
KRO1 090705Z 30006KT M01/M02 A3032 RMK A01 T10081019  RH  092%=      5-min Rain = 0
KRO1 090706Z 30006KT M01/M02 A3032 RMK A01 T10081019  RH  092%=      5-min Rain = 0
KRO1 090707Z 30007KT M01/M02 A3032 RMK A01 T10081019  RH  092%=      5-min Rain = 0
KRO1 090708Z 29007KT M01/M02 A3032 RMK A01 T10091020  RH  092%=      5-min Rain = 0
KRO1 090709Z 30007KT M01/M02 A3032 RMK A01 T10091020  RH  092%=      5-min Rain = 0
KRO1 090710Z 29007KT M01/M02 A3032 RMK A01 T10091020  RH  093%=      5-min Rain = 0
KRO1 090711Z 30007KT M01/M02 A3032 RMK A01 T10091019  RH  093%=      5-min Rain = 0
KRO1 090712Z 29007KT M01/M02 A3032 RMK A01 T10091019  RH  093%=      5-min Rain = 0
KRO1 090713Z 29007KT M01/M02 A3032 RMK A01 T10091020  RH  093%=      5-min Rain = 0
KRO1 090714Z 29007KT M01/M02 A3032 RMK A01 T10091019  RH  093%=      5-min Rain = 0
KRO1 090715Z 29006KT M01/M02 A3032 RMK A01 T10091019  RH  093%=      5-min Rain = 0
KRO1 090716Z 29007KT M01/M02 A3032 RMK A01 T10091019  RH  093%=      5-min Rain = 0
KRO1 090717Z 29007KT M01/M02 A3032 RMK A01 T10101020  RH  093%=      5-min Rain = 0
KRO1 090718Z 29007KT M01/M02 A3032 RMK A01 T10091019  RH  093%=      5-min Rain = 0
KRO1 090719Z 30007KT M01/M02 A3032 RMK A01 T10101020  RH  093%=      5-min Rain = 0
KRO1 090720Z 30007KT M01/M02 A3031 RMK A01 T10101019  RH  093%=      5-min Rain = 0
KRO1 090721Z 30006KT M01/M02 A3031 RMK A01 T10101019  RH  093%=      5-min Rain = 0
KRO1 090722Z 30007KT M01/M02 A3031 RMK A01 T10091019  RH  093%=      5-min Rain = 0
KRO1 090723Z 30007KT M01/M02 A3032 RMK A01 T10091018  RH  093%=      5-min Rain = 0
KRO1 090724Z 30006KT M01/M02 A3032 RMK A01 T10091018  RH  093%=      5-min Rain = 0
KRO1 090725Z 30006KT M01/M02 A3032 RMK A01 T10081018  RH  093%=      5-min Rain = 0
KRO1 090726Z 30006KT M01/M02 A3032 RMK A01 T10081019  RH  093%=      5-min Rain = 0
KRO1 090727Z 30006KT M01/M02 A3032 RMK A01 T10091019  RH  093%=      5-min Rain = 0
KRO1 090728Z 29006KT M01/M02 A3032 RMK A01 T10081018  RH  093%=      5-min Rain = 0
KRO1 090729Z 29006KT M01/M02 A3032 RMK A01 T10081018  RH  093%=      5-min Rain = 0
KRO1 090730Z 29005KT M01/M02 A3032 RMK A01 T10091019  RH  093%=      5-min Rain = 0
KRO1 090731Z 29006KT M01/M02 A3032 RMK A01 T10101020  RH  092%=      5-min Rain = 0
KRO1 090732Z 29006KT M01/M02 A3032 RMK A01 T10101021  RH  092%=      5-min Rain = 0
KRO1 090733Z 29006KT M01/M02 A3032 RMK A01 T10101021  RH  092%=      5-min Rain = 0
KRO1 090734Z 29006KT M01/M02 A3032 RMK A01 T10101020  RH  093%=      5-min Rain = 0
KRO1 090735Z 30006KT M01/M02 A3032 RMK A01 T10101020  RH  093%=      5-min Rain = 0
KRO1 090736Z 30006KT M01/M02 A3032 RMK A01 T10101020  RH  093%=      5-min Rain = 0
KRO1 090737Z 30006KT M01/M02 A3032 RMK A01 T10101020  RH  093%=      5-min Rain = 0
KRO1 090738Z 30007KT M01/M02 A3032 RMK A01 T10101020  RH  093%=      5-min Rain = 0
KRO1 090739Z 30007KT M01/M02 A3032 RMK A01 T10111021  RH  093%=      5-min Rain = 0
KRO1 090740Z 30007KT M01/M02 A3032 RMK A01 T10111020  RH  093%=      5-min Rain = 0
KRO1 090741Z 30007KT M01/M02 A3032 RMK A01 T10111020  RH  093%=      5-min Rain = 0
KRO1 090742Z 31007KT M01/M02 A3032 RMK A01 T10101020  RH  093%=      5-min Rain = 0
KRO1 090743Z 31007KT M01/M02 A3032 RMK A01 T10101019  RH  094%=      5-min Rain = 0
KRO1 090744Z 31007KT M01/M02 A3032 RMK A01 T10101019  RH  094%=      5-min Rain = 0
KRO1 090745Z 31007KT M01/M02 A3031 RMK A01 T10101019  RH  094%=      5-min Rain = 0
KRO1 090746Z 31007KT M01/M02 A3031 RMK A01 T10091019  RH  093%=      5-min Rain = 0
KRO1 090747Z 31007KT M01/M02 A3031 RMK A01 T10101019  RH  093%=      5-min Rain = 0
KRO1 090748Z 31007KT M01/M02 A3031 RMK A01 T10101020  RH  093%=      5-min Rain = 0
KRO1 090749Z 31007KT M01/M02 A3031 RMK A01 T10101021  RH  093%=      5-min Rain = 0
KRO1 090750Z 31007KT M01/M02 A3031 RMK A01 T10111021  RH  093%=      5-min Rain = 0
KRO1 090751Z 31007KT M01/M02 A3031 RMK A01 T10121021  RH  093%=      5-min Rain = 0
KRO1 090752Z 31007KT M01/M02 A3031 RMK A01 T10121021  RH  093%=      5-min Rain = 0
KRO1 090753Z 31007KT M01/M02 A3031 RMK A01 T10121021  RH  093%=      5-min Rain = 0
KRO1 090754Z 31007KT M01/M02 A3031 RMK A01 T10121021  RH  094%=      5-min Rain = 0
KRO1 090755Z 31008KT M01/M02 A3031 RMK A01 T10121021  RH  094%=      5-min Rain = 0
KRO1 090756Z 31008KT M01/M02 A3031 RMK A01 T10121021  RH  094%=      5-min Rain = 0
KRO1 090757Z 31008KT M01/M02 A3031 RMK A01 T10121021  RH  094%=      5-min Rain = 0
KRO1 090758Z 31008KT M01/M02 A3031 RMK A01 T10121020  RH  094%=      5-min Rain = 0
KRO1 090759Z 31008KT M01/M02 A3031 RMK A01 T10111020  RH  094%=      5-min Rain = 0
KRO1 090800Z 31008KT M01/M02 A3031 RMK A01 T10111019  RH  094%=      5-min Rain = 0
KRO1 090801Z 31008KT M01/M02 A3031 RMK A01 T10101018  RH  094%=      5-min Rain = 0
KRO1 090802Z 31008KT M01/M02 A3031 RMK A01 T10101018  RH  094%=      5-min Rain = 0
KRO1 090803Z 31009KT M01/M02 A3031 RMK A01 T10101019  RH  094%=      5-min Rain = 0
KRO1 090804Z 32009KT M01/M02 A3031 RMK A01 T10101019  RH  094%=      5-min Rain = 0
KRO1 090805Z 31008KT M01/M02 A3031 RMK A01 T10101019  RH  094%=      5-min Rain = 0
KRO1 090806Z 31008KT M01/M02 A3031 RMK A01 T10091018  RH  094%=      5-min Rain = 0
KRO1 090807Z 31008KT M01/M02 A3031 RMK A01 T10091018  RH  093%=      5-min Rain = 0
KRO1 090808Z 31007KT M01/M02 A3031 RMK A01 T10091019  RH  093%=      5-min Rain = 0
KRO1 090809Z 31009KT M01/M02 A3031 RMK A01 T10081018  RH  093%=      5-min Rain = 0
KRO1 090810Z 30009KT M01/M02 A3031 RMK A01 T10081018  RH  093%=      5-min Rain = 0
KRO1 090811Z 31009KT M01/M02 A3031 RMK A01 T10071016  RH  093%=      5-min Rain = 0
KRO1 090812Z 31008KT M01/M02 A3031 RMK A01 T10061016  RH  093%=      5-min Rain = 0
KRO1 090813Z 31009KT M01/M02 A3031 RMK A01 T10061017  RH  093%=      5-min Rain = 0
KRO1 090814Z 31008KT M01/M02 A3031 RMK A01 T10061017  RH  092%=      5-min Rain = 0
KRO1 090815Z 31008KT M01/M02 A3031 RMK A01 T10061017  RH  092%=      5-min Rain = 0
KRO1 090816Z 31008KT M01/M02 A3031 RMK A01 T10051017  RH  092%=      5-min Rain = 0
KRO1 090817Z 30008KT M01/M02 A3031 RMK A01 T10061018  RH  091%=      5-min Rain = 0
KRO1 090818Z 30009KT M01/M02 A3031 RMK A01 T10061018  RH  091%=      5-min Rain = 0
KRO1 090819Z 30008KT M01/M02 A3031 RMK A01 T10051018  RH  091%=      5-min Rain = 0
KRO1 090820Z 30007KT M01/M02 A3031 RMK A01 T10051018  RH  091%=      5-min Rain = 0
KRO1 090821Z 30008KT M01/M02 A3031 RMK A01 T10071019  RH  091%=      5-min Rain = 0
KRO1 090822Z 30008KT M01/M02 A3031 RMK A01 T10071020  RH  091%=      5-min Rain = 0
KRO1 090823Z 31008KT M01/M02 A3031 RMK A01 T10081020  RH  092%=      5-min Rain = 0
KRO1 090824Z 31007KT M01/M02 A3031 RMK A01 T10081020  RH  092%=      5-min Rain = 0
KRO1 090825Z 30008KT M01/M02 A3031 RMK A01 T10091020  RH  092%=      5-min Rain = 0
KRO1 090826Z 31008KT M01/M02 A3031 RMK A01 T10091020  RH  092%=      5-min Rain = 0
KRO1 090827Z 30008KT M01/M02 A3031 RMK A01 T10101021  RH  092%=      5-min Rain = 0
KRO1 090828Z 30007KT M01/M02 A3031 RMK A01 T10101021  RH  093%=      5-min Rain = 0
KRO1 090829Z 31007KT M01/M02 A3031 RMK A01 T10101020  RH  093%=      5-min Rain = 0
KRO1 090830Z 31009KT M01/M02 A3031 RMK A01 T10101020  RH  093%=      5-min Rain = 0
KRO1 090831Z 31007KT M01/M02 A3031 RMK A01 T10101019  RH  093%=      5-min Rain = 0
KRO1 090832Z 31007KT M01/M02 A3031 RMK A01 T10101019  RH  093%=      5-min Rain = 0
KRO1 090833Z 32009KT M01/M02 A3031 RMK A01 T10101020  RH  093%=      5-min Rain = 0
KRO1 090834Z 32008KT M01/M02 A3031 RMK A01 T10091019  RH  093%=      5-min Rain = 0
KRO1 090835Z 32009KT M01/M02 A3031 RMK A01 T10091019  RH  093%=      5-min Rain = 0
KRO1 090836Z 32009KT M01/M02 A303 RMK A01 T10091019  RH  093%=      5-min Rain = 0
KRO1 090837Z 32008KT M01/M02 A303 RMK A01 T10081018  RH  093%=      5-min Rain = 0
KRO1 090838Z 32009KT M01/M02 A303 RMK A01 T10081019  RH  093%=      5-min Rain = 0
KRO1 090839Z 32010KT M01/M02 A303 RMK A01 T10081019  RH  093%=      5-min Rain = 0
KRO1 090840Z 32010KT M01/M02 A303 RMK A01 T10081019  RH  093%=      5-min Rain = 0
KRO1 090841Z 32010KT M01/M02 A303 RMK A01 T10081019  RH  092%=      5-min Rain = 0
KRO1 090842Z 32009KT M01/M02 A3031 RMK A01 T10081019  RH  092%=      5-min Rain = 0
KRO1 090843Z 32010KT M01/M02 A3031 RMK A01 T10081020  RH  091%=      5-min Rain = 0
KRO1 090844Z 32010KT M01/M02 A3031 RMK A01 T10071020  RH  091%=      5-min Rain = 0
KRO1 090845Z 32010KT M01/M02 A3031 RMK A01 T10081020  RH  091%=      5-min Rain = 0
KRO1 090846Z 32010KT M01/M02 A3031 RMK A01 T10071021  RH  091%=      5-min Rain = 0
KRO1 090847Z 32010KT M01/M02 A3031 RMK A01 T10081021  RH  090%=      5-min Rain = 0
KRO1 090848Z 32009KT M01/M02 A3031 RMK A01 T10081022  RH  090%=      5-min Rain = 0
KRO1 090849Z 32009KT M01/M02 A3031 RMK A01 T10081022  RH  090%=      5-min Rain = 0
KRO1 090850Z 32010KT M01/M02 A3031 RMK A01 T10091023  RH  090%=      5-min Rain = 0
KRO1 090851Z 32009KT M01/M02 A3031 RMK A01 T10091022  RH  091%=      5-min Rain = 0
KRO1 090852Z 32009KT M01/M02 A3031 RMK A01 T10091022  RH  091%=      5-min Rain = 0
KRO1 090853Z 32009KT M01/M02 A3031 RMK A01 T10101023  RH  091%=      5-min Rain = 0
KRO1 090854Z 32009KT M01/M02 A3031 RMK A01 T10101023  RH  091%=      5-min Rain = 0
KRO1 090855Z 32009KT M01/M02 A3031 RMK A01 T10111023  RH  091%=      5-min Rain = 0
KRO1 090856Z 32010KT M01/M02 A3031 RMK A01 T10111023  RH  092%=      5-min Rain = 0
KRO1 090857Z 32010KT M01/M02 A3031 RMK A01 T10111023  RH  092%=      5-min Rain = 0
KRO1 090858Z 32009KT M01/M02 A3031 RMK A01 T10101022  RH  092%=      5-min Rain = 0
KRO1 090859Z 32009KT M01/M02 A3031 RMK A01 T10101022  RH  092%=      5-min Rain = 0
KRO1 090900Z 31009KT M01/M02 A3031 RMK A01 T10101022  RH  092%=      5-min Rain = 0
KRO1 090901Z 31009KT M01/M02 A3031 RMK A01 T10111023  RH  092%=      5-min Rain = 0
KRO1 090902Z 31009KT M01/M02 A3031 RMK A01 T10111023  RH  092%=      5-min Rain = 0
KRO1 090903Z 31010KT M01/M02 A3031 RMK A01 T10121023  RH  092%=      5-min Rain = 0
KRO1 090904Z 32010KT M01/M02 A3031 RMK A01 T10121023  RH  092%=      5-min Rain = 0
KRO1 090905Z 32009KT M01/M02 A3031 RMK A01 T10121023  RH  092%=      5-min Rain = 0
KRO1 090906Z 32009KT M01/M02 A3031 RMK A01 T10121023  RH  092%=      5-min Rain = 0
KRO1 090907Z 32008KT M01/M02 A3031 RMK A01 T10121023  RH  092%=      5-min Rain = 0
KRO1 090908Z 32009KT M01/M02 A3031 RMK A01 T10121024  RH  092%=      5-min Rain = 0
KRO1 090909Z 31009KT M01/M02 A3031 RMK A01 T10121023  RH  092%=      5-min Rain = 0
KRO1 090910Z 31009KT M01/M02 A3031 RMK A01 T10121023  RH  092%=      5-min Rain = 0
KRO1 090911Z 31009KT M01/M02 A3031 RMK A01 T10121023  RH  092%=      5-min Rain = 0
KRO1 090912Z 32009KT M01/M02 A3031 RMK A01 T10121024  RH  092%=      5-min Rain = 0
KRO1 090913Z 31009KT M01/M02 A3031 RMK A01 T10121024  RH  092%=      5-min Rain = 0
KRO1 090914Z 32010KT M01/M02 A3031 RMK A01 T10121024  RH  092%=      5-min Rain = 0
KRO1 090915Z 31010KT M01/M02 A3031 RMK A01 T10121024  RH  092%=      5-min Rain = 0
KRO1 090916Z 31010KT M01/M02 A3031 RMK A01 T10121024  RH  091%=      5-min Rain = 0
KRO1 090917Z 31009KT M01/M03 A3031 RMK A01 T10121025  RH  091%=      5-min Rain = 0
KRO1 090918Z 31009KT M01/M03 A3031 RMK A01 T10121025  RH  091%=      5-min Rain = 0
KRO1 090919Z 31009KT M01/M03 A3031 RMK A01 T10121025  RH  091%=      5-min Rain = 0
KRO1 090920Z 31009KT M01/M03 A3031 RMK A01 T10131025  RH  091%=      5-min Rain = 0
KRO1 090921Z 31009KT M01/M03 A3031 RMK A01 T10131025  RH  091%=      5-min Rain = 0
KRO1 090922Z 31009KT M01/M03 A3031 RMK A01 T10131025  RH  092%=      5-min Rain = 0
KRO1 090923Z 31009KT M01/M03 A3031 RMK A01 T10141025  RH  092%=      5-min Rain = 0
KRO1 090924Z 31008KT M01/M03 A3031 RMK A01 T10141025  RH  092%=      5-min Rain = 0
KRO1 090925Z 31009KT M01/M03 A3031 RMK A01 T10141025  RH  092%=      5-min Rain = 0
KRO1 090926Z 31008KT M01/M03 A3031 RMK A01 T10141026  RH  092%=      5-min Rain = 0
KRO1 090927Z 32008KT M01/M03 A3031 RMK A01 T10141026  RH  091%=      5-min Rain = 0
KRO1 090928Z 32008KT M01/M03 A3031 RMK A01 T10141027  RH  091%=      5-min Rain = 0
KRO1 090929Z 32009KT M02/M03 A3031 RMK A01 T10151027  RH  091%=      5-min Rain = 0
KRO1 090930Z 32008KT M02/M03 A3031 RMK A01 T10151027  RH  091%=      5-min Rain = 0
KRO1 090931Z 32008KT M02/M03 A3031 RMK A01 T10151027  RH  091%=      5-min Rain = 0
KRO1 090932Z 32008KT M02/M03 A3031 RMK A01 T10151028  RH  091%=      5-min Rain = 0
KRO1 090933Z 32009KT M02/M03 A3031 RMK A01 T10161028  RH  091%=      5-min Rain = 0
KRO1 090934Z 31008KT M02/M03 A3031 RMK A01 T10161029  RH  091%=      5-min Rain = 0
KRO1 090935Z 31008KT M02/M03 A3031 RMK A01 T10171029  RH  091%=      5-min Rain = 0
KRO1 090936Z 31008KT M02/M03 A3031 RMK A01 T10171029  RH  092%=      5-min Rain = 0
KRO1 090937Z 31009KT M02/M03 A3031 RMK A01 T10171029  RH  092%=      5-min Rain = 0
KRO1 090938Z 31009KT M02/M03 A3031 RMK A01 T10171029  RH  092%=      5-min Rain = 0
KRO1 090939Z 31008KT M02/M03 A3031 RMK A01 T10171029  RH  092%=      5-min Rain = 0
KRO1 090940Z 31009KT M02/M03 A3031 RMK A01 T10181030  RH  091%=      5-min Rain = 0
KRO1 090941Z 32009KT M02/M03 A3031 RMK A01 T10181030  RH  091%=      5-min Rain = 0
KRO1 090942Z 32009KT M02/M03 A3031 RMK A01 T10181030  RH  091%=      5-min Rain = 0
KRO1 090943Z 31009KT M02/M03 A3031 RMK A01 T10171030  RH  091%=      5-min Rain = 0
KRO1 090944Z 32009KT M02/M03 A3031 RMK A01 T10181030  RH  091%=      5-min Rain = 0
KRO1 090945Z 32009KT M02/M03 A3031 RMK A01 T10181031  RH  091%=      5-min Rain = 0
KRO1 090946Z 32009KT M02/M03 A3031 RMK A01 T10181031  RH  091%=      5-min Rain = 0
KRO1 090947Z 32009KT M02/M03 A3031 RMK A01 T10181031  RH  091%=      5-min Rain = 0
KRO1 090948Z 31008KT M02/M03 A3031 RMK A01 T10191032  RH  091%=      5-min Rain = 0
KRO1 090949Z 32008KT M02/M03 A3031 RMK A01 T10191032  RH  090%=      5-min Rain = 0
KRO1 090950Z 32008KT M02/M03 A3031 RMK A01 T10191032  RH  090%=      5-min Rain = 0
KRO1 090951Z 32008KT M02/M03 A3031 RMK A01 T10191032  RH  091%=      5-min Rain = 0
KRO1 090952Z 32008KT M02/M03 A3031 RMK A01 T10191032  RH  091%=      5-min Rain = 0
KRO1 090953Z 32008KT M02/M03 A3031 RMK A01 T10191033  RH  091%=      5-min Rain = 0
KRO1 090954Z 32008KT M02/M03 A3031 RMK A01 T10201033  RH  091%=      5-min Rain = 0
KRO1 090955Z 32008KT M02/M03 A3031 RMK A01 T10201033  RH  091%=      5-min Rain = 0
KRO1 090956Z 32008KT M02/M03 A3031 RMK A01 T10201033  RH  090%=      5-min Rain = 0
KRO1 090957Z 32008KT M02/M03 A3031 RMK A01 T10201034  RH  090%=      5-min Rain = 0
KRO1 090958Z 31007KT M02/M03 A3031 RMK A01 T10201034  RH  090%=      5-min Rain = 0
KRO1 090959Z 31007KT M02/M03 A3031 RMK A01 T10211034  RH  090%=      5-min Rain = 0
KRO1 091000Z 31007KT M02/M04 A3031 RMK A01 T10211035  RH  090%=      5-min Rain = 0
KRO1 091001Z 31007KT M02/M04 A3031 RMK A01 T10221035  RH  090%=      5-min Rain = 0
KRO1 091002Z 31007KT M02/M04 A3031 RMK A01 T10221035  RH  091%=      5-min Rain = 0
KRO1 091003Z 31006KT M02/M04 A3032 RMK A01 T10221036  RH  091%=      5-min Rain = 0
KRO1 091004Z 31007KT M02/M04 A3032 RMK A01 T10231036  RH  091%=      5-min Rain = 0
KRO1 091005Z 31007KT M02/M04 A3032 RMK A01 T10231036  RH  091%=      5-min Rain = 0
KRO1 091006Z 31007KT M02/M04 A3032 RMK A01 T10231036  RH  091%=      5-min Rain = 0
KRO1 091007Z 31007KT M02/M04 A3032 RMK A01 T10231035  RH  091%=      5-min Rain = 0
KRO1 091008Z 31007KT M02/M04 A3032 RMK A01 T10231036  RH  091%=      5-min Rain = 0
KRO1 091009Z 31007KT M02/M04 A3032 RMK A01 T10231036  RH  091%=      5-min Rain = 0
KRO1 091010Z 31007KT M02/M04 A3032 RMK A01 T10231036  RH  091%=      5-min Rain = 0
KRO1 091011Z 30007KT M02/M04 A3032 RMK A01 T10231036  RH  091%=      5-min Rain = 0
KRO1 091012Z 30006KT M02/M04 A3032 RMK A01 T10231036  RH  091%=      5-min Rain = 0
KRO1 091013Z 30006KT M02/M04 A3032 RMK A01 T10231036  RH  091%=      5-min Rain = 0
KRO1 091014Z 30007KT M02/M04 A3032 RMK A01 T10241037  RH  091%=      5-min Rain = 0
KRO1 091015Z 30006KT M02/M04 A3032 RMK A01 T10241036  RH  091%=      5-min Rain = 0
KRO1 091016Z 30006KT M02/M04 A3032 RMK A01 T10241037  RH  091%=      5-min Rain = 0
KRO1 091017Z 30007KT M02/M04 A3032 RMK A01 T10241037  RH  091%=      5-min Rain = 0
KRO1 091018Z 30006KT M02/M04 A3032 RMK A01 T10241037  RH  091%=      5-min Rain = 0
KRO1 091019Z 30006KT M02/M04 A3032 RMK A01 T10241037  RH  090%=      5-min Rain = 0
KRO1 091020Z 30007KT M02/M04 A3032 RMK A01 T10241038  RH  090%=      5-min Rain = 0
KRO1 091021Z 30006KT M02/M04 A3032 RMK A01 T10241038  RH  090%=      5-min Rain = 0
KRO1 091022Z 30006KT M02/M04 A3032 RMK A01 T10241038  RH  090%=      5-min Rain = 0
KRO1 091023Z 31006KT M02/M04 A3032 RMK A01 T10241038  RH  090%=      5-min Rain = 0
KRO1 091024Z 30007KT M02/M04 A3032 RMK A01 T10241038  RH  090%=      5-min Rain = 0
KRO1 091025Z 31007KT M03/M04 A3032 RMK A01 T10251039  RH  090%=      5-min Rain = 0
KRO1 091026Z 31006KT M03/M04 A3032 RMK A01 T10251039  RH  090%=      5-min Rain = 0
KRO1 091027Z 31007KT M03/M04 A3032 RMK A01 T10251039  RH  090%=      5-min Rain = 0
KRO1 091028Z 31007KT M03/M04 A3032 RMK A01 T10251039  RH  090%=      5-min Rain = 0
KRO1 091029Z 31007KT M03/M04 A3032 RMK A01 T10251040  RH  090%=      5-min Rain = 0
KRO1 091030Z 30007KT M03/M04 A3032 RMK A01 T10261040  RH  090%=      5-min Rain = 0
KRO1 091031Z 30007KT M03/M04 A3032 RMK A01 T10261040  RH  090%=      5-min Rain = 0
KRO1 091032Z 31007KT M03/M04 A3032 RMK A01 T10251040  RH  090%=      5-min Rain = 0
KRO1 091033Z 31008KT M03/M04 A3032 RMK A01 T10261040  RH  090%=      5-min Rain = 0
KRO1 091034Z 31008KT M03/M04 A3032 RMK A01 T10251040  RH  090%=      5-min Rain = 0
KRO1 091035Z 31007KT M03/M04 A3032 RMK A01 T10261040  RH  090%=      5-min Rain = 0
KRO1 091036Z 31008KT M03/M04 A3032 RMK A01 T10251040  RH  090%=      5-min Rain = 0
KRO1 091037Z 31007KT M03/M04 A3032 RMK A01 T10251040  RH  090%=      5-min Rain = 0
KRO1 091038Z 31007KT M03/M04 A3032 RMK A01 T10251040  RH  089%=      5-min Rain = 0
KRO1 091039Z 31008KT M03/M04 A3032 RMK A01 T10251040  RH  089%=      5-min Rain = 0
KRO1 091040Z 31008KT M03/M04 A3032 RMK A01 T10251040  RH  089%=      5-min Rain = 0
KRO1 091041Z 31008KT M03/M04 A3032 RMK A01 T10251040  RH  089%=      5-min Rain = 0
KRO1 091042Z 31008KT M03/M04 A3032 RMK A01 T10251040  RH  089%=      5-min Rain = 0
KRO1 091043Z 31008KT M03/M04 A3032 RMK A01 T10251040  RH  089%=      5-min Rain = 0
KRO1 091044Z 31008KT M03/M04 A3033 RMK A01 T10251040  RH  089%=      5-min Rain = 0
KRO1 091045Z 30007KT M03/M04 A3033 RMK A01 T10251041  RH  089%=      5-min Rain = 0
KRO1 091046Z 31008KT M03/M04 A3033 RMK A01 T10251040  RH  089%=      5-min Rain = 0
KRO1 091047Z 30007KT M03/M04 A3033 RMK A01 T10251041  RH  089%=      5-min Rain = 0
KRO1 091048Z 31008KT M03/M04 A3033 RMK A01 T10251040  RH  089%=      5-min Rain = 0
KRO1 091049Z 30008KT M03/M04 A3033 RMK A01 T10261041  RH  090%=      5-min Rain = 0
KRO1 091050Z 31007KT M03/M04 A3033 RMK A01 T10251040  RH  089%=      5-min Rain = 0
KRO1 091051Z 31008KT M03/M04 A3033 RMK A01 T10251041  RH  089%=      5-min Rain = 0
KRO1 091052Z 31008KT M03/M04 A3033 RMK A01 T10251041  RH  089%=      5-min Rain = 0
KRO1 091053Z 31007KT M03/M04 A3033 RMK A01 T10251041  RH  089%=      5-min Rain = 0
KRO1 091054Z 31007KT M03/M04 A3033 RMK A01 T10251042  RH  088%=      5-min Rain = 0
KRO1 091055Z 31007KT M03/M04 A3033 RMK A01 T10251042  RH  088%=      5-min Rain = 0
KRO1 091056Z 31007KT M03/M04 A3033 RMK A01 T10251042  RH  088%=      5-min Rain = 0
KRO1 091057Z 31007KT M03/M04 A3033 RMK A01 T10251042  RH  089%=      5-min Rain = 0
KRO1 091058Z 31007KT M03/M04 A3033 RMK A01 T10251042  RH  089%=      5-min Rain = 0
KRO1 091059Z 31007KT M03/M04 A3033 RMK A01 T10251042  RH  089%=      5-min Rain = 0
KRO1 091100Z 31008KT M03/M04 A3033 RMK A01 T10261042  RH  089%=      5-min Rain = 0
KRO1 091101Z 32008KT M03/M04 A3033 RMK A01 T10251042  RH  089%=      5-min Rain = 0
KRO1 091102Z 31007KT M03/M04 A3033 RMK A01 T10261042  RH  089%=      5-min Rain = 0
KRO1 091103Z 32008KT M03/M04 A3033 RMK A01 T10251042  RH  089%=      5-min Rain = 0
KRO1 091104Z 32008KT M03/M04 A3033 RMK A01 T10261042  RH  088%=      5-min Rain = 0
KRO1 091105Z 32008KT M03/M04 A3033 RMK A01 T10261042  RH  088%=      5-min Rain = 0
KRO1 091106Z 31009KT M03/M04 A3033 RMK A01 T10251042  RH  088%=      5-min Rain = 0
KRO1 091107Z 32008KT M02/M04 A3033 RMK A01 T10241042  RH  088%=      5-min Rain = 0
KRO1 091108Z 31008KT M02/M04 A3033 RMK A01 T10241042  RH  088%=      5-min Rain = 0
KRO1 091109Z 31008KT M02/M04 A3033 RMK A01 T10241042  RH  088%=      5-min Rain = 0
KRO1 091110Z 31008KT M02/M04 A3033 RMK A01 T10241042  RH  088%=      5-min Rain = 0
KRO1 091111Z 31008KT M03/M04 A3033 RMK A01 T10251042  RH  088%=      5-min Rain = 0
KRO1 091112Z 31008KT M03/M04 A3033 RMK A01 T10251042  RH  088%=      5-min Rain = 0
KRO1 091113Z 31009KT M03/M04 A3033 RMK A01 T10251042  RH  088%=      5-min Rain = 0
KRO1 091114Z 31009KT M03/M04 A3033 RMK A01 T10251042  RH  088%=      5-min Rain = 0
KRO1 091115Z 31008KT M03/M04 A3033 RMK A01 T10251043  RH  087%=      5-min Rain = 0
KRO1 091116Z 31008KT M02/M04 A3033 RMK A01 T10241042  RH  087%=      5-min Rain = 0
KRO1 091117Z 31008KT M02/M04 A3033 RMK A01 T10241043  RH  087%=      5-min Rain = 0
KRO1 091118Z 31009KT M02/M04 A3033 RMK A01 T10241043  RH  087%=      5-min Rain = 0
KRO1 091119Z 31009KT M02/M04 A3033 RMK A01 T10241043  RH  087%=      5-min Rain = 0
KRO1 091120Z 31008KT M02/M04 A3033 RMK A01 T10241043  RH  087%=      5-min Rain = 0
KRO1 091121Z 30008KT M03/M04 A3033 RMK A01 T10251044  RH  087%=      5-min Rain = 0
KRO1 091122Z 31008KT M03/M04 A3033 RMK A01 T10251043  RH  087%=      5-min Rain = 0
KRO1 091123Z 30009KT M03/M04 A3033 RMK A01 T10251043  RH  087%=      5-min Rain = 0
KRO1 091124Z 30009KT M03/M04 A3033 RMK A01 T10251043  RH  087%=      5-min Rain = 0
KRO1 091125Z 30009KT M03/M04 A3033 RMK A01 T10251043  RH  087%=      5-min Rain = 0
KRO1 091126Z 30009KT M03/M04 A3033 RMK A01 T10251043  RH  087%=      5-min Rain = 0
KRO1 091127Z 31009KT M03/M04 A3033 RMK A01 T10251043  RH  087%=      5-min Rain = 0
KRO1 091128Z 31008KT M03/M04 A3033 RMK A01 T10251044  RH  087%=      5-min Rain = 0
KRO1 091129Z 31009KT M03/M04 A3033 RMK A01 T10251044  RH  087%=      5-min Rain = 0
KRO1 091130Z 31009KT M03/M04 A3033 RMK A01 T10251044  RH  087%=      5-min Rain = 0
KRO1 091131Z 31009KT M03/M04 A3033 RMK A01 T10251044  RH  087%=      5-min Rain = 0
KRO1 091132Z 31009KT M03/M04 A3033 RMK A01 T10251044  RH  087%=      5-min Rain = 0
KRO1 091133Z 31008KT M03/M04 A3034 RMK A01 T10251044  RH  087%=      5-min Rain = 0
KRO1 091134Z 31008KT M03/M05 A3034 RMK A01 T10251045  RH  087%=      5-min Rain = 0
KRO1 091135Z 31009KT M03/M05 A3034 RMK A01 T10251045  RH  087%=      5-min Rain = 0
KRO1 091136Z 31008KT M03/M04 A3034 RMK A01 T10251044  RH  087%=      5-min Rain = 0
KRO1 091137Z 31009KT M03/M04 A3034 RMK A01 T10251044  RH  087%=      5-min Rain = 0
KRO1 091138Z 31009KT M03/M04 A3034 RMK A01 T10251044  RH  087%=      5-min Rain = 0
KRO1 091139Z 31008KT M03/M05 A3034 RMK A01 T10251045  RH  087%=      5-min Rain = 0
KRO1 091140Z 31008KT M03/M05 A3034 RMK A01 T10251045  RH  086%=      5-min Rain = 0
KRO1 091141Z 31008KT M03/M05 A3034 RMK A01 T10251046  RH  086%=      5-min Rain = 0
KRO1 091142Z 31007KT M03/M05 A3034 RMK A01 T10251045  RH  086%=      5-min Rain = 0
KRO1 091143Z 31007KT M03/M05 A3034 RMK A01 T10261046  RH  086%=      5-min Rain = 0
KRO1 091144Z 31008KT M03/M05 A3034 RMK A01 T10261046  RH  086%=      5-min Rain = 0
KRO1 091145Z 31008KT M03/M05 A3034 RMK A01 T10261046  RH  087%=      5-min Rain = 0
KRO1 091146Z 31007KT M03/M05 A3034 RMK A01 T10261045  RH  087%=      5-min Rain = 0
KRO1 091147Z 31008KT M03/M05 A3034 RMK A01 T10261045  RH  087%=      5-min Rain = 0
KRO1 091148Z 31008KT M03/M05 A3034 RMK A01 T10261045  RH  087%=      5-min Rain = 0
KRO1 091149Z 31007KT M03/M05 A3034 RMK A01 T10271046  RH  087%=      5-min Rain = 0
KRO1 091150Z 31007KT M03/M05 A3034 RMK A01 T10271046  RH  087%=      5-min Rain = 0
KRO1 091151Z 31007KT M03/M05 A3034 RMK A01 T10271046  RH  087%=      5-min Rain = 0
KRO1 091152Z 31007KT M03/M05 A3034 RMK A01 T10271045  RH  087%=      5-min Rain = 0
KRO1 091153Z 31007KT M03/M05 A3034 RMK A01 T10271046  RH  087%=      5-min Rain = 0
KRO1 091154Z 31007KT M03/M05 A3034 RMK A01 T10271046  RH  087%=      5-min Rain = 0
KRO1 091155Z 31006KT M03/M05 A3034 RMK A01 T10281046  RH  087%=      5-min Rain = 0
KRO1 091156Z 31007KT M03/M05 A3034 RMK A01 T10281046  RH  088%=      5-min Rain = 0
KRO1 091157Z 31006KT M03/M05 A3034 RMK A01 T10281046  RH  088%=      5-min Rain = 0
KRO1 091158Z 31007KT M03/M05 A3034 RMK A01 T10291046  RH  088%=      5-min Rain = 0
KRO1 091159Z 31007KT M03/M05 A3034 RMK A01 T10291046  RH  088%=      5-min Rain = 0
KRO1 091200Z 31007KT M03/M05 A3034 RMK A01 T10281046  RH  088%=      5-min Rain = 0
KRO1 091201Z 31007KT M03/M05 A3034 RMK A01 T10281046  RH  087%=      5-min Rain = 0
KRO1 091202Z 31007KT M03/M05 A3034 RMK A01 T10291047  RH  087%=      5-min Rain = 0
KRO1 091203Z 31007KT M03/M05 A3034 RMK A01 T10291047  RH  087%=      5-min Rain = 0
KRO1 091204Z 31007KT M03/M05 A3034 RMK A01 T10281047  RH  087%=      5-min Rain = 0
KRO1 091205Z 31007KT M03/M05 A3034 RMK A01 T10291047  RH  087%=      5-min Rain = 0
KRO1 091206Z 31007KT M03/M05 A3034 RMK A01 T10291047  RH  087%=      5-min Rain = 0
KRO1 091207Z 31007KT M03/M05 A3034 RMK A01 T10291048  RH  087%=      5-min Rain = 0
KRO1 091208Z 31007KT M03/M05 A3034 RMK A01 T10291047  RH  087%=      5-min Rain = 0
KRO1 091209Z 31007KT M03/M05 A3034 RMK A01 T10291047  RH  087%=      5-min Rain = 0
KRO1 091210Z 31007KT M03/M05 A3034 RMK A01 T10291047  RH  087%=      5-min Rain = 0
KRO1 091211Z 31007KT M03/M05 A3034 RMK A01 T10291048  RH  087%=      5-min Rain = 0
KRO1 091212Z 31007KT M03/M05 A3034 RMK A01 T10301048  RH  087%=      5-min Rain = 0
KRO1 091213Z 31007KT M03/M05 A3034 RMK A01 T10301048  RH  087%=      5-min Rain = 0
KRO1 091214Z 31007KT M03/M05 A3034 RMK A01 T10301048  RH  087%=      5-min Rain = 0
KRO1 091215Z 31008KT M03/M05 A3034 RMK A01 T10301048  RH  088%=      5-min Rain = 0
KRO1 091216Z 31008KT M03/M05 A3035 RMK A01 T10301048  RH  088%=      5-min Rain = 0
KRO1 091217Z 31008KT M03/M05 A3035 RMK A01 T10301048  RH  088%=      5-min Rain = 0
KRO1 091218Z 31008KT M03/M05 A3035 RMK A01 T10301048  RH  087%=      5-min Rain = 0
KRO1 091219Z 31008KT M03/M05 A3035 RMK A01 T10301048  RH  087%=      5-min Rain = 0
KRO1 091220Z 31008KT M03/M05 A3035 RMK A01 T10301048  RH  088%=      5-min Rain = 0
KRO1 091221Z 32008KT M03/M05 A3035 RMK A01 T10301048  RH  088%=      5-min Rain = 0
KRO1 091222Z 32007KT M03/M05 A3035 RMK A01 T10301048  RH  087%=      5-min Rain = 0
KRO1 091223Z 32008KT M03/M05 A3035 RMK A01 T10301048  RH  087%=      5-min Rain = 0
KRO1 091224Z 32008KT M03/M05 A3035 RMK A01 T10301049  RH  087%=      5-min Rain = 0
KRO1 091225Z 32008KT M03/M05 A3035 RMK A01 T10301049  RH  087%=      5-min Rain = 0
KRO1 091226Z 32008KT M03/M05 A3035 RMK A01 T10301049  RH  087%=      5-min Rain = 0
KRO1 091227Z 32008KT M03/M05 A3035 RMK A01 T10301049  RH  087%=      5-min Rain = 0
KRO1 091228Z 32008KT M03/M05 A3035 RMK A01 T10301049  RH  087%=      5-min Rain = 0
KRO1 091229Z 32008KT M03/M05 A3035 RMK A01 T10301049  RH  086%=      5-min Rain = 0
KRO1 091230Z 32008KT M03/M05 A3035 RMK A01 T10301050  RH  086%=      5-min Rain = 0
KRO1 091231Z 32008KT M03/M05 A3035 RMK A01 T10301050  RH  086%=      5-min Rain = 0
KRO1 091232Z 32007KT M03/M05 A3035 RMK A01 T10301050  RH  086%=      5-min Rain = 0
KRO1 091233Z 32007KT M03/M05 A3035 RMK A01 T10311050  RH  086%=      5-min Rain = 0
KRO1 091234Z 31007KT M03/M05 A3035 RMK A01 T10311050  RH  086%=      5-min Rain = 0
KRO1 091235Z 32007KT M03/M05 A3035 RMK A01 T10311051  RH  087%=      5-min Rain = 0
KRO1 091236Z 32006KT M03/M05 A3035 RMK A01 T10311050  RH  087%=      5-min Rain = 0
KRO1 091237Z 32007KT M03/M05 A3035 RMK A01 T10311050  RH  087%=      5-min Rain = 0
KRO1 091238Z 32006KT M03/M05 A3035 RMK A01 T10311050  RH  087%=      5-min Rain = 0
KRO1 091239Z 32007KT M03/M05 A3035 RMK A01 T10321051  RH  087%=      5-min Rain = 0
KRO1 091240Z 31007KT M03/M05 A3035 RMK A01 T10321051  RH  087%=      5-min Rain = 0
KRO1 091241Z 31007KT M03/M05 A3035 RMK A01 T10321051  RH  086%=      5-min Rain = 0
KRO1 091242Z 31007KT M03/M05 A3035 RMK A01 T10321052  RH  086%=      5-min Rain = 0
KRO1 091243Z 31008KT M03/M05 A3035 RMK A01 T10321052  RH  086%=      5-min Rain = 0
KRO1 091244Z 31008KT M03/M05 A3035 RMK A01 T10321052  RH  086%=      5-min Rain = 0
KRO1 091245Z 31008KT M03/M05 A3036 RMK A01 T10311052  RH  086%=      5-min Rain = 0
KRO1 091246Z 31008KT M03/M05 A3036 RMK A01 T10311052  RH  085%=      5-min Rain = 0
KRO1 091247Z 31008KT M03/M05 A3036 RMK A01 T10311052  RH  085%=      5-min Rain = 0
KRO1 091248Z 32008KT M03/M05 A3036 RMK A01 T10311053  RH  085%=      5-min Rain = 0
KRO1 091249Z 32009KT M03/M05 A3036 RMK A01 T10311052  RH  085%=      5-min Rain = 0
KRO1 091250Z 32008KT M03/M05 A3036 RMK A01 T10311052  RH  085%=      5-min Rain = 0
KRO1 091251Z 32008KT M03/M05 A3036 RMK A01 T10321053  RH  085%=      5-min Rain = 0
KRO1 091252Z 32008KT M03/M05 A3036 RMK A01 T10311052  RH  086%=      5-min Rain = 0
KRO1 091253Z 31008KT M03/M05 A3036 RMK A01 T10311052  RH  085%=      5-min Rain = 0
KRO1 091254Z 31008KT M03/M05 A3036 RMK A01 T10311052  RH  085%=      5-min Rain = 0
KRO1 091255Z 32008KT M03/M05 A3036 RMK A01 T10311053  RH  085%=      5-min Rain = 0
KRO1 091256Z 32008KT M03/M05 A3036 RMK A01 T10301053  RH  084%=      5-min Rain = 0
KRO1 091257Z 32008KT M03/M05 A3036 RMK A01 T10301053  RH  084%=      5-min Rain = 0
KRO1 091258Z 32007KT M03/M05 A3036 RMK A01 T10301054  RH  084%=      5-min Rain = 0
KRO1 091259Z 31008KT M03/M05 A3036 RMK A01 T10311054  RH  084%=      5-min Rain = 0
KRO1 091300Z 31007KT M03/M05 A3036 RMK A01 T10311054  RH  084%=      5-min Rain = 0
KRO1 091301Z 31007KT M03/M05 A3036 RMK A01 T10311054  RH  084%=      5-min Rain = 0
KRO1 091302Z 31007KT M03/M05 A3036 RMK A01 T10321054  RH  085%=      5-min Rain = 0
KRO1 091303Z 31007KT M03/M05 A3036 RMK A01 T10321054  RH  085%=      5-min Rain = 0
KRO1 091304Z 31007KT M03/M05 A3036 RMK A01 T10321054  RH  085%=      5-min Rain = 0
KRO1 091305Z 31007KT M03/M05 A3036 RMK A01 T10331054  RH  085%=      5-min Rain = 0
KRO1 091306Z 31007KT M03/M06 A3036 RMK A01 T10331055  RH  085%=      5-min Rain = 0
KRO1 091307Z 31007KT M03/M06 A3036 RMK A01 T10321055  RH  084%=      5-min Rain = 0
KRO1 091308Z 31007KT M03/M06 A3036 RMK A01 T10311055  RH  084%=      5-min Rain = 0
KRO1 091309Z 31008KT M03/M06 A3036 RMK A01 T10311055  RH  084%=      5-min Rain = 0
KRO1 091310Z 31007KT M03/M06 A3036 RMK A01 T10311055  RH  084%=      5-min Rain = 0
KRO1 091311Z 31007KT M03/M06 A3036 RMK A01 T10311056  RH  083%=      5-min Rain = 0
KRO1 091312Z 31007KT M03/M06 A3036 RMK A01 T10311056  RH  083%=      5-min Rain = 0
KRO1 091313Z 31007KT M03/M06 A3036 RMK A01 T10311055  RH  083%=      5-min Rain = 0
KRO1 091314Z 31007KT M03/M06 A3036 RMK A01 T10321056  RH  084%=      5-min Rain = 0
KRO1 091315Z 31007KT M03/M06 A3036 RMK A01 T10321056  RH  084%=      5-min Rain = 0
KRO1 091316Z 31008KT M03/M06 A3036 RMK A01 T10331056  RH  084%=      5-min Rain = 0
KRO1 091317Z 31008KT M03/M06 A3036 RMK A01 T10331057  RH  084%=      5-min Rain = 0
KRO1 091318Z 31007KT M03/M06 A3036 RMK A01 T10331057  RH  084%=      5-min Rain = 0
KRO1 091319Z 31008KT M03/M06 A3036 RMK A01 T10331057  RH  084%=      5-min Rain = 0
KRO1 091320Z 31008KT M03/M06 A3037 RMK A01 T10331057  RH  084%=      5-min Rain = 0
KRO1 091321Z 31008KT M03/M06 A3037 RMK A01 T10331057  RH  084%=      5-min Rain = 0
KRO1 091322Z 31008KT M03/M06 A3037 RMK A01 T10341057  RH  084%=      5-min Rain = 0
KRO1 091323Z 31008KT M03/M06 A3037 RMK A01 T10341057  RH  084%=      5-min Rain = 0
KRO1 091324Z 31008KT M03/M06 A3037 RMK A01 T10331057  RH  084%=      5-min Rain = 0
KRO1 091325Z 31008KT M03/M06 A3037 RMK A01 T10341057  RH  084%=      5-min Rain = 0
KRO1 091326Z 31008KT M03/M06 A3037 RMK A01 T10341058  RH  083%=      5-min Rain = 0
KRO1 091327Z 31009KT M03/M06 A3037 RMK A01 T10331058  RH  083%=      5-min Rain = 0
KRO1 091328Z 31008KT M03/M06 A3037 RMK A01 T10331058  RH  083%=      5-min Rain = 0
KRO1 091329Z 31008KT M03/M06 A3037 RMK A01 T10331058  RH  083%=      5-min Rain = 0
KRO1 091330Z 31009KT M03/M06 A3037 RMK A01 T10331057  RH  083%=      5-min Rain = 0
KRO1 091331Z 31009KT M03/M06 A3037 RMK A01 T10331058  RH  083%=      5-min Rain = 0
KRO1 091332Z 31009KT M03/M06 A3037 RMK A01 T10331058  RH  083%=      5-min Rain = 0
KRO1 091333Z 31009KT M03/M06 A3037 RMK A01 T10331058  RH  083%=      5-min Rain = 0
KRO1 091334Z 30009KT M03/M06 A3037 RMK A01 T10331058  RH  082%=      5-min Rain = 0
KRO1 091335Z 30009KT M03/M06 A3037 RMK A01 T10331059  RH  082%=      5-min Rain = 0
KRO1 091336Z 30009KT M03/M06 A3037 RMK A01 T10331059  RH  082%=      5-min Rain = 0
KRO1 091337Z 30009KT M03/M06 A3037 RMK A01 T10331059  RH  082%=      5-min Rain = 0
KRO1 091338Z 30009KT M03/M06 A3037 RMK A01 T10321059  RH  082%=      5-min Rain = 0
KRO1 091339Z 31009KT M03/M06 A3037 RMK A01 T10321059  RH  082%=      5-min Rain = 0
KRO1 091340Z 31009KT M03/M06 A3037 RMK A01 T10321059  RH  082%=      5-min Rain = 0
KRO1 091341Z 31008KT M03/M06 A3037 RMK A01 T10321059  RH  081%=      5-min Rain = 0
KRO1 091342Z 31009KT M03/M06 A3037 RMK A01 T10311059  RH  081%=      5-min Rain = 0
KRO1 091343Z 31009KT M03/M06 A3037 RMK A01 T10311059  RH  081%=      5-min Rain = 0
KRO1 091344Z 31009KT M03/M06 A3037 RMK A01 T10311059  RH  081%=      5-min Rain = 0
KRO1 091345Z 31009KT M03/M06 A3037 RMK A01 T10311060  RH  081%=      5-min Rain = 0
KRO1 091346Z 31009KT M03/M06 A3037 RMK A01 T10311060  RH  080%=      5-min Rain = 0
KRO1 091347Z 30009KT M03/M06 A3037 RMK A01 T10311060  RH  080%=      5-min Rain = 0
KRO1 091348Z 31008KT M03/M06 A3037 RMK A01 T10311060  RH  080%=      5-min Rain = 0
KRO1 091349Z 31008KT M03/M06 A3037 RMK A01 T10311060  RH  080%=      5-min Rain = 0
KRO1 091350Z 31008KT M03/M06 A3037 RMK A01 T10301059  RH  080%=      5-min Rain = 0
KRO1 091351Z 31008KT M03/M06 A3037 RMK A01 T10301060  RH  080%=      5-min Rain = 0
KRO1 091352Z 30008KT M03/M06 A3037 RMK A01 T10291059  RH  080%=      5-min Rain = 0
KRO1 091353Z 30008KT M03/M06 A3037 RMK A01 T10291060  RH  080%=      5-min Rain = 0
KRO1 091354Z 30008KT M03/M06 A3037 RMK A01 T10291060  RH  080%=      5-min Rain = 0
KRO1 091355Z 30008KT M03/M06 A3037 RMK A01 T10291060  RH  080%=      5-min Rain = 0
KRO1 091356Z 30008KT M03/M06 A3037 RMK A01 T10291060  RH  080%=      5-min Rain = 0
KRO1 091357Z 30008KT M03/M06 A3037 RMK A01 T10301060  RH  080%=      5-min Rain = 0
KRO1 091358Z 30009KT M03/M06 A3037 RMK A01 T10291060  RH  079%=      5-min Rain = 0
KRO1 091359Z 30008KT M03/M06 A3037 RMK A01 T10291060  RH  079%=      5-min Rain = 0
KRO1 091400Z 30008KT M03/M06 A3038 RMK A01 T10291060  RH  079%=      5-min Rain = 0
KRO1 091401Z 30009KT M03/M06 A3038 RMK A01 T10291060  RH  079%=      5-min Rain = 0
KRO1 091402Z 30009KT M03/M06 A3038 RMK A01 T10291060  RH  079%=      5-min Rain = 0
KRO1 091403Z 30009KT M03/M06 A3038 RMK A01 T10281060  RH  079%=      5-min Rain = 0
KRO1 091404Z 30008KT M03/M06 A3038 RMK A01 T10291060  RH  079%=      5-min Rain = 0
KRO1 091405Z 30008KT M03/M06 A3038 RMK A01 T10281060  RH  079%=      5-min Rain = 0
KRO1 091406Z 30008KT M03/M06 A3038 RMK A01 T10281060  RH  079%=      5-min Rain = 0
KRO1 091407Z 30007KT M03/M06 A3038 RMK A01 T10281060  RH  079%=      5-min Rain = 0
KRO1 091408Z 30008KT M03/M06 A3038 RMK A01 T10281060  RH  079%=      5-min Rain = 0
KRO1 091409Z 30008KT M03/M06 A3038 RMK A01 T10271059  RH  078%=      5-min Rain = 0
KRO1 091410Z 30007KT M03/M06 A3038 RMK A01 T10261059  RH  078%=      5-min Rain = 0
KRO1 091411Z 30007KT M03/M06 A3038 RMK A01 T10261059  RH  078%=      5-min Rain = 0
KRO1 091412Z 30007KT M03/M06 A3038 RMK A01 T10261060  RH  077%=      5-min Rain = 0
KRO1 091413Z 30007KT M03/M06 A3038 RMK A01 T10251059  RH  077%=      5-min Rain = 0
KRO1 091414Z 31008KT M03/M06 A3038 RMK A01 T10251059  RH  078%=      5-min Rain = 0
KRO1 091415Z 30008KT M03/M06 A3038 RMK A01 T10251059  RH  078%=      5-min Rain = 0
KRO1 091416Z 31008KT M03/M06 A3038 RMK A01 T10251059  RH  077%=      5-min Rain = 0
KRO1 091417Z 30007KT M02/M06 A3038 RMK A01 T10241060  RH  077%=      5-min Rain = 0
KRO1 091418Z 31007KT M02/M06 A3038 RMK A01 T10231059  RH  076%=      5-min Rain = 0
KRO1 091419Z 31007KT M02/M06 A3038 RMK A01 T10231059  RH  076%=      5-min Rain = 0
KRO1 091420Z 31007KT M02/M06 A3038 RMK A01 T10231059  RH  077%=      5-min Rain = 0
KRO1 091421Z 31007KT M02/M06 A3038 RMK A01 T10231058  RH  077%=      5-min Rain = 0
KRO1 091422Z 31007KT M02/M06 A3038 RMK A01 T10231058  RH  077%=      5-min Rain = 0
KRO1 091423Z 31007KT M02/M06 A3038 RMK A01 T10231058  RH  077%=      5-min Rain = 0
KRO1 091424Z 31007KT M02/M06 A3038 RMK A01 T10231058  RH  077%=      5-min Rain = 0
KRO1 091425Z 31007KT M02/M06 A3038 RMK A01 T10231057  RH  078%=      5-min Rain = 0
KRO1 091426Z 31006KT M02/M06 A3038 RMK A01 T10231057  RH  078%=      5-min Rain = 0
KRO1 091427Z 31006KT M02/M06 A3038 RMK A01 T10231056  RH  078%=      5-min Rain = 0
KRO1 091428Z 31006KT M02/M06 A3038 RMK A01 T10231056  RH  078%=      5-min Rain = 0
KRO1 091429Z 31007KT M02/M06 A3038 RMK A01 T10231056  RH  079%=      5-min Rain = 0
KRO1 091430Z 30006KT M02/M06 A3039 RMK A01 T10231056  RH  078%=      5-min Rain = 0
KRO1 091431Z 30006KT M02/M06 A3039 RMK A01 T10231056  RH  078%=      5-min Rain = 0
KRO1 091432Z 30006KT M02/M06 A3039 RMK A01 T10231055  RH  079%=      5-min Rain = 0
KRO1 091433Z 30005KT M02/M06 A3039 RMK A01 T10231055  RH  079%=      5-min Rain = 0
KRO1 091434Z 30006KT M02/M06 A3039 RMK A01 T10231055  RH  079%=      5-min Rain = 0
KRO1 091435Z 30005KT M02/M05 A3039 RMK A01 T10221054  RH  079%=      5-min Rain = 0
KRO1 091436Z 30006KT M02/M05 A3039 RMK A01 T10221054  RH  079%=      5-min Rain = 0
KRO1 091437Z 30006KT M02/M05 A3039 RMK A01 T10211053  RH  079%=      5-min Rain = 0
KRO1 091438Z 30007KT M02/M05 A3039 RMK A01 T10211053  RH  079%=      5-min Rain = 0
KRO1 091439Z 30007KT M02/M05 A3039 RMK A01 T10201053  RH  078%=      5-min Rain = 0
KRO1 091440Z 30007KT M02/M05 A3039 RMK A01 T10201053  RH  078%=      5-min Rain = 0
KRO1 091441Z 30006KT M02/M05 A3039 RMK A01 T10201053  RH  078%=      5-min Rain = 0
KRO1 091442Z 30007KT M02/M05 A3039 RMK A01 T10191052  RH  078%=      5-min Rain = 0
KRO1 091443Z 30007KT M02/M05 A3039 RMK A01 T10191054  RH  077%=      5-min Rain = 0
KRO1 091444Z 30007KT M02/M05 A3039 RMK A01 T10181053  RH  078%=      5-min Rain = 0
KRO1 091445Z 30007KT M02/M05 A3039 RMK A01 T10181052  RH  077%=      5-min Rain = 0
KRO1 091446Z 30007KT M02/M05 A3039 RMK A01 T10181052  RH  077%=      5-min Rain = 0
KRO1 091447Z 30007KT M02/M05 A3039 RMK A01 T10171052  RH  077%=      5-min Rain = 0
KRO1 091448Z 30007KT M02/M05 A3039 RMK A01 T10171052  RH  077%=      5-min Rain = 0
KRO1 091449Z 30007KT M02/M05 A3039 RMK A01 T10171052  RH  077%=      5-min Rain = 0
KRO1 091450Z 30007KT M02/M05 A3039 RMK A01 T10161052  RH  077%=      5-min Rain = 0
KRO1 091451Z 30007KT M02/M05 A3039 RMK A01 T10161052  RH  076%=      5-min Rain = 0
KRO1 091452Z 30007KT M02/M05 A3039 RMK A01 T10161053  RH  076%=      5-min Rain = 0
KRO1 091453Z 30007KT M02/M05 A3039 RMK A01 T10161052  RH  076%=      5-min Rain = 0
KRO1 091454Z 30007KT M02/M05 A3039 RMK A01 T10151051  RH  076%=      5-min Rain = 0
KRO1 091455Z 30008KT M02/M05 A3039 RMK A01 T10151052  RH  076%=      5-min Rain = 0
KRO1 091456Z 30007KT M01/M05 A3039 RMK A01 T10141052  RH  075%=      5-min Rain = 0
KRO1 091457Z 31007KT M01/M05 A3039 RMK A01 T10141052  RH  075%=      5-min Rain = 0
KRO1 091458Z 30007KT M01/M05 A3039 RMK A01 T10141051  RH  076%=      5-min Rain = 0
KRO1 091459Z 31006KT M01/M05 A3039 RMK A01 T10131050  RH  076%=      5-min Rain = 0
KRO1 091500Z 31007KT M01/M05 A304 RMK A01 T10121050  RH  076%=      5-min Rain = 0
KRO1 091501Z 31006KT M01/M05 A304 RMK A01 T10121051  RH  075%=      5-min Rain = 0
KRO1 091502Z 31006KT M01/M05 A304 RMK A01 T10121051  RH  075%=      5-min Rain = 0
KRO1 091503Z 31006KT M01/M05 A304 RMK A01 T10111050  RH  075%=      5-min Rain = 0
KRO1 091504Z 31006KT M01/M05 A304 RMK A01 T10111051  RH  074%=      5-min Rain = 0
KRO1 091505Z 31006KT M01/M05 A304 RMK A01 T10111051  RH  074%=      5-min Rain = 0
KRO1 091506Z 32006KT M01/M05 A304 RMK A01 T10101050  RH  074%=      5-min Rain = 0
KRO1 091507Z 31006KT M01/M05 A304 RMK A01 T10101051  RH  074%=      5-min Rain = 0
KRO1 091508Z 31006KT M01/M05 A304 RMK A01 T10101051  RH  074%=      5-min Rain = 0
KRO1 091509Z 32006KT M01/M05 A304 RMK A01 T10091050  RH  074%=      5-min Rain = 0
KRO1 091510Z 32006KT M01/M05 A304 RMK A01 T10091052  RH  073%=      5-min Rain = 0
KRO1 091511Z 31005KT M01/M05 A304 RMK A01 T10091053  RH  072%=      5-min Rain = 0
KRO1 091512Z 32006KT M01/M05 A304 RMK A01 T10091050  RH  073%=      5-min Rain = 0
KRO1 091513Z 32006KT M01/M05 A304 RMK A01 T10081049  RH  074%=      5-min Rain = 0
KRO1 091514Z 32006KT M01/M05 A304 RMK A01 T10081049  RH  073%=      5-min Rain = 0
KRO1 091515Z 32006KT M01/M05 A304 RMK A01 T10071050  RH  073%=      5-min Rain = 0
KRO1 091516Z 32005KT M01/M05 A304 RMK A01 T10061049  RH  073%=      5-min Rain = 0
KRO1 091517Z 32006KT M01/M05 A304 RMK A01 T10051048  RH  073%=      5-min Rain = 0
KRO1 091518Z 32005KT M01/M05 A304 RMK A01 T10051050  RH  072%=      5-min Rain = 0
KRO1 091519Z 32005KT M01/M05 A304 RMK A01 T10051051  RH  071%=      5-min Rain = 0
KRO1 091520Z 32005KT M01/M05 A3041 RMK A01 T10051052  RH  071%=      5-min Rain = 0
KRO1 091521Z 31004KT M01/M05 A3041 RMK A01 T10061052  RH  071%=      5-min Rain = 0
KRO1 091522Z 32004KT M01/M05 A3041 RMK A01 T10051051  RH  071%=      5-min Rain = 0
KRO1 091523Z 32005KT M00/M05 A3041 RMK A01 T10041049  RH  072%=      5-min Rain = 0
KRO1 091524Z 32004KT M00/M05 A3041 RMK A01 T10041050  RH  071%=      5-min Rain = 0
KRO1 091525Z 32004KT M00/M05 A3041 RMK A01 T10041050  RH  071%=      5-min Rain = 0
KRO1 091526Z 32005KT M00/M05 A3041 RMK A01 T10031051  RH  070%=      5-min Rain = 0
KRO1 091527Z 32004KT M00/M05 A3041 RMK A01 T10031051  RH  070%=      5-min Rain = 0
KRO1 091528Z 32004KT M00/M05 A3041 RMK A01 T10021051  RH  070%=      5-min Rain = 0
KRO1 091529Z 32004KT M00/M05 A3041 RMK A01 T10021049  RH  070%=      5-min Rain = 0
KRO1 091530Z 31003KT M00/M05 A3041 RMK A01 T10011049  RH  070%=      5-min Rain = 0
KRO1 091531Z 32004KT M00/M05 A3041 RMK A01 T10011051  RH  069%=      5-min Rain = 0
KRO1 091532Z 32004KT M00/M05 A3041 RMK A01 T10011051  RH  069%=      5-min Rain = 0
KRO1 091533Z 32004KT M00/M05 A3041 RMK A01 T10011050  RH  070%=      5-min Rain = 0
KRO1 091534Z 32004KT 00/05 A3041 RMK A01 T00-00-49  RH  070%=      5-min Rain = 0
KRO1 091535Z 32003KT 00/05 A3041 RMK A01 T00000-50  RH  069%=      5-min Rain = 0
KRO1 091536Z 32003KT 00/M05 A3041 RMK A01 T00011050  RH  069%=      5-min Rain = 0
KRO1 091537Z 32004KT 00/M05 A3041 RMK A01 T00011051  RH  068%=      5-min Rain = 0
KRO1 091538Z 31003KT 00/M05 A3042 RMK A01 T00011050  RH  069%=      5-min Rain = 0
KRO1 091539Z 31004KT 00/M05 A3042 RMK A01 T00011049  RH  069%=      5-min Rain = 0
KRO1 091540Z 31003KT 00/M05 A3042 RMK A01 T00021051  RH  068%=      5-min Rain = 0
KRO1 091541Z 31004KT 00/M05 A3042 RMK A01 T00021050  RH  068%=      5-min Rain = 0
KRO1 091542Z 31004KT 00/M05 A3042 RMK A01 T00021051  RH  067%=      5-min Rain = 0
KRO1 091543Z 31004KT 00/M05 A3042 RMK A01 T00021052  RH  067%=      5-min Rain = 0
KRO1 091544Z 31004KT 00/M05 A3042 RMK A01 T00031053  RH  066%=      5-min Rain = 0
KRO1 091545Z 31004KT 00/M05 A3042 RMK A01 T00021054  RH  066%=      5-min Rain = 0
KRO1 091546Z 32004KT 00/M06 A3042 RMK A01 T00021055  RH  066%=      5-min Rain = 0
KRO1 091547Z 32004KT 00/M05 A3042 RMK A01 T00021052  RH  067%=      5-min Rain = 0
KRO1 091548Z 32004KT 00/M05 A3042 RMK A01 T00031050  RH  067%=      5-min Rain = 0
KRO1 091549Z 32004KT 00/M05 A3042 RMK A01 T00031052  RH  066%=      5-min Rain = 0
KRO1 091550Z 32004KT 00/M05 A3042 RMK A01 T00031053  RH  066%=      5-min Rain = 0
KRO1 091551Z 31004KT 00/M05 A3042 RMK A01 T00031052  RH  067%=      5-min Rain = 0
KRO1 091552Z 31004KT 00/M06 A3042 RMK A01 T00031055  RH  065%=      5-min Rain = 0
KRO1 091553Z 31004KT 00/M05 A3042 RMK A01 T00031052  RH  066%=      5-min Rain = 0
KRO1 091554Z 32003KT 00/M05 A3042 RMK A01 T00041052  RH  066%=      5-min Rain = 0
KRO1 091555Z 31004KT 01/M05 A3042 RMK A01 T00051048  RH  068%=      5-min Rain = 0
KRO1 091556Z 31003KT 01/M05 A3042 RMK A01 T00051051  RH  066%=      5-min Rain = 0
KRO1 091557Z 31004KT 01/M05 A3042 RMK A01 T00051050  RH  066%=      5-min Rain = 0
KRO1 091558Z 31004KT 01/M05 A3042 RMK A01 T00061048  RH  067%=      5-min Rain = 0
KRO1 091559Z 31003KT 01/M05 A3042 RMK A01 T00061047  RH  067%=      5-min Rain = 0
KRO1 091600Z 31003KT 01/M05 A3042 RMK A01 T00071048  RH  067%=      5-min Rain = 0
KRO1 091601Z 30003KT 01/M05 A3042 RMK A01 T00071048  RH  067%=      5-min Rain = 0
KRO1 091602Z 30003KT 01/M05 A3042 RMK A01 T00081045  RH  068%=      5-min Rain = 0
KRO1 091603Z 30003KT 01/M05 A3042 RMK A01 T00091045  RH  067%=      5-min Rain = 0
KRO1 091604Z 31004KT 01/M04 A3042 RMK A01 T00101043  RH  068%=      5-min Rain = 0
KRO1 091605Z 31004KT 01/M05 A3042 RMK A01 T00101046  RH  066%=      5-min Rain = 0
KRO1 091606Z 30004KT 01/M05 A3042 RMK A01 T00101047  RH  066%=      5-min Rain = 0
KRO1 091607Z 30003KT 01/M05 A3042 RMK A01 T00101048  RH  065%=      5-min Rain = 0
KRO1 091608Z 31004KT 01/M05 A3042 RMK A01 T00101046  RH  066%=      5-min Rain = 0
KRO1 091609Z 31003KT 01/M05 A3042 RMK A01 T00111048  RH  065%=      5-min Rain = 0
KRO1 091610Z 32004KT 01/M05 A3042 RMK A01 T00111046  RH  066%=      5-min Rain = 0
KRO1 091611Z 32003KT 01/M05 A3042 RMK A01 T00121048  RH  064%=      5-min Rain = 0
KRO1 091612Z 31003KT 01/M05 A3042 RMK A01 T00121052  RH  062%=      5-min Rain = 0
KRO1 091613Z 30003KT 01/M05 A3042 RMK A01 T00121049  RH  063%=      5-min Rain = 0
KRO1 091614Z 31003KT 01/M05 A3042 RMK A01 T00131049  RH  064%=      5-min Rain = 0
KRO1 091615Z 31004KT 01/M05 A3042 RMK A01 T00131049  RH  063%=      5-min Rain = 0
KRO1 091616Z 31004KT 01/M05 A3042 RMK A01 T00141050  RH  063%=      5-min Rain = 0
KRO1 091617Z 31003KT 01/M05 A3042 RMK A01 T00141052  RH  062%=      5-min Rain = 0
KRO1 091618Z 30003KT 01/M05 A3042 RMK A01 T00141049  RH  063%=      5-min Rain = 0
KRO1 091619Z 31004KT 01/M05 A3042 RMK A01 T00141047  RH  063%=      5-min Rain = 0
KRO1 091620Z 31005KT 02/M05 A3042 RMK A01 T00151051  RH  061%=      5-min Rain = 0
KRO1 091621Z 31006KT 02/M05 A3042 RMK A01 T00151052  RH  061%=      5-min Rain = 0
KRO1 091622Z 31006KT 02/M05 A3042 RMK A01 T00151052  RH  061%=      5-min Rain = 0
KRO1 091623Z 31005KT 02/M05 A3042 RMK A01 T00151053  RH  060%=      5-min Rain = 0
KRO1 091624Z 31005KT 02/M05 A3042 RMK A01 T00151052  RH  061%=      5-min Rain = 0
KRO1 091625Z 31005KT 02/M05 A3042 RMK A01 T00161050  RH  062%=      5-min Rain = 0
KRO1 091626Z 31005KT 02/M05 A3043 RMK A01 T00161051  RH  061%=      5-min Rain = 0
KRO1 091627Z 31006KT 02/M05 A3043 RMK A01 T00161051  RH  061%=      5-min Rain = 0
KRO1 091628Z 31005KT 02/M05 A3043 RMK A01 T00161053  RH  060%=      5-min Rain = 0
KRO1 091629Z 33005KT 02/M05 A3043 RMK A01 T00171051  RH  061%=      5-min Rain = 0
KRO1 091630Z 32005KT 02/M05 A3043 RMK A01 T00171052  RH  060%=      5-min Rain = 0
KRO1 091631Z 31005KT 02/M05 A3043 RMK A01 T00171050  RH  061%=      5-min Rain = 0
KRO1 091632Z 31005KT 02/M05 A3043 RMK A01 T00171047  RH  063%=      5-min Rain = 0
KRO1 091633Z 31005KT 02/M05 A3043 RMK A01 T00181048  RH  062%=      5-min Rain = 0
KRO1 091634Z 31006KT 02/M05 A3043 RMK A01 T00181050  RH  061%=      5-min Rain = 0
KRO1 091635Z 32006KT 02/M05 A3043 RMK A01 T00181051  RH  060%=      5-min Rain = 0
KRO1 091636Z 31005KT 02/M05 A3043 RMK A01 T00191049  RH  061%=      5-min Rain = 0
KRO1 091637Z 32005KT 02/M05 A3043 RMK A01 T00201045  RH  062%=      5-min Rain = 0
KRO1 091638Z 32005KT 02/M05 A3043 RMK A01 T00201048  RH  061%=      5-min Rain = 0
KRO1 091639Z 31005KT 02/M05 A3043 RMK A01 T00211047  RH  061%=      5-min Rain = 0
KRO1 091640Z 32005KT 02/M05 A3043 RMK A01 T00211047  RH  060%=      5-min Rain = 0
KRO1 091641Z 32005KT 02/M05 A3043 RMK A01 T00221049  RH  059%=      5-min Rain = 0
KRO1 091642Z 32006KT 02/M06 A3042 RMK A01 T00221058  RH  056%=      5-min Rain = 0
KRO1 091643Z 32005KT 02/M06 A3042 RMK A01 T00221057  RH  056%=      5-min Rain = 0
KRO1 091644Z 33006KT 02/M05 A3042 RMK A01 T00221054  RH  057%=      5-min Rain = 0
KRO1 091645Z 32005KT 02/M05 A3042 RMK A01 T00221052  RH  058%=      5-min Rain = 0
KRO1 091646Z 32004KT 02/M05 A3042 RMK A01 T00231046  RH  060%=      5-min Rain = 0
KRO1 091647Z 32005KT 02/M04 A3042 RMK A01 T00241044  RH  061%=      5-min Rain = 0
KRO1 091648Z 32006KT 03/M05 A3042 RMK A01 T00251046  RH  060%=      5-min Rain = 0
KRO1 091649Z 33007KT 03/M05 A3043 RMK A01 T00251050  RH  058%=      5-min Rain = 0
KRO1 091650Z 33006KT 02/M05 A3043 RMK A01 T00241053  RH  057%=      5-min Rain = 0
KRO1 091651Z 33006KT 02/M05 A3043 RMK A01 T00241050  RH  058%=      5-min Rain = 0
KRO1 091652Z 33006KT 03/M05 A3043 RMK A01 T00251049  RH  058%=      5-min Rain = 0
KRO1 091653Z 34006KT 02/M05 A3043 RMK A01 T00241049  RH  058%=      5-min Rain = 0
KRO1 091654Z 33006KT 03/M05 A3042 RMK A01 T00251045  RH  060%=      5-min Rain = 0
KRO1 091655Z 34006KT 03/M04 A3042 RMK A01 T00251044  RH  060%=      5-min Rain = 0
KRO1 091656Z 34005KT 03/M05 A3042 RMK A01 T00251047  RH  059%=      5-min Rain = 0
KRO1 091657Z 34005KT 03/M04 A3042 RMK A01 T00261042  RH  061%=      5-min Rain = 0
KRO1 091658Z 33005KT 03/M04 A3042 RMK A01 T00271040  RH  062%=      5-min Rain = 0
KRO1 091659Z 32006KT 03/M04 A3042 RMK A01 T00281038  RH  062%=      5-min Rain = 0
KRO1 091700Z 32008KT 03/M05 A3042 RMK A01 T00281045  RH  059%=      5-min Rain = 0
KRO1 091701Z 33007KT 03/M05 A3042 RMK A01 T00281045  RH  059%=      5-min Rain = 0
KRO1 091702Z 33008KT 03/M05 A3042 RMK A01 T00271049  RH  057%=      5-min Rain = 0
KRO1 091703Z 33007KT 03/M05 A3042 RMK A01 T00261051  RH  057%=      5-min Rain = 0
KRO1 091704Z 33006KT 03/M05 A3042 RMK A01 T00261051  RH  057%=      5-min Rain = 0
KRO1 091705Z 33006KT 03/M05 A3042 RMK A01 T00261048  RH  058%=      5-min Rain = 0
KRO1 091706Z 33007KT 03/M05 A3042 RMK A01 T00271048  RH  058%=      5-min Rain = 0
KRO1 091707Z 33007KT 03/M05 A3042 RMK A01 T00271050  RH  057%=      5-min Rain = 0
KRO1 091708Z 33007KT 03/M05 A3042 RMK A01 T00271049  RH  057%=      5-min Rain = 0
KRO1 091709Z 34006KT 03/M05 A3042 RMK A01 T00271047  RH  058%=      5-min Rain = 0
KRO1 091710Z 34006KT 03/M05 A3042 RMK A01 T00271048  RH  058%=      5-min Rain = 0
KRO1 091711Z 34005KT 03/M05 A3042 RMK A01 T00271045  RH  059%=      5-min Rain = 0
KRO1 091712Z 34005KT 03/M05 A3042 RMK A01 T00271046  RH  058%=      5-min Rain = 0
KRO1 091713Z 33007KT 03/M05 A3042 RMK A01 T00271047  RH  058%=      5-min Rain = 0
KRO1 091714Z 33006KT 03/M04 A3042 RMK A01 T00281044  RH  059%=      5-min Rain = 0
KRO1 091715Z 34006KT 03/M04 A3042 RMK A01 T00291041  RH  060%=      5-min Rain = 0
KRO1 091716Z 34007KT 03/M04 A3042 RMK A01 T00291043  RH  059%=      5-min Rain = 0
KRO1 091717Z 33007KT 03/M05 A3042 RMK A01 T00291046  RH  058%=      5-min Rain = 0
KRO1 091718Z 34005KT 03/M04 A3042 RMK A01 T00291042  RH  060%=      5-min Rain = 0
KRO1 091719Z 34006KT 03/M04 A3042 RMK A01 T00311035  RH  062%=      5-min Rain = 0
KRO1 091720Z 34006KT 03/M04 A3042 RMK A01 T00311038  RH  060%=      5-min Rain = 0
KRO1 091721Z 33006KT 03/M04 A3042 RMK A01 T00311037  RH  061%=      5-min Rain = 0
KRO1 091722Z 33006KT 03/M04 A3042 RMK A01 T00311039  RH  060%=      5-min Rain = 0
KRO1 091723Z 33007KT 03/M04 A3042 RMK A01 T00311042  RH  059%=      5-min Rain = 0
KRO1 091724Z 33008KT 03/M04 A3042 RMK A01 T00311042  RH  058%=      5-min Rain = 0
KRO1 091725Z 34006KT 03/M05 A3042 RMK A01 T00311046  RH  057%=      5-min Rain = 0
KRO1 091726Z 34006KT 03/M04 A3042 RMK A01 T00311043  RH  058%=      5-min Rain = 0
KRO1 091727Z 34006KT 03/M04 A3042 RMK A01 T00321040  RH  059%=      5-min Rain = 0
KRO1 091728Z 33005KT 03/M04 A3042 RMK A01 T00331037  RH  060%=      5-min Rain = 0
KRO1 091729Z 34005KT 03/M04 A3042 RMK A01 T00341036  RH  060%=      5-min Rain = 0
KRO1 091730Z 34006KT 04/M03 A3042 RMK A01 T00351034  RH  061%=      5-min Rain = 0
KRO1 091731Z 35006KT 04/M04 A3042 RMK A01 T00351043  RH  057%=      5-min Rain = 0
KRO1 091732Z 34005KT 04/M04 A3042 RMK A01 T00351038  RH  059%=      5-min Rain = 0
KRO1 091733Z 34006KT 04/M04 A3042 RMK A01 T00351037  RH  059%=      5-min Rain = 0
KRO1 091734Z 34006KT 04/M04 A3042 RMK A01 T00361044  RH  056%=      5-min Rain = 0
KRO1 091735Z 34005KT 04/M05 A3042 RMK A01 T00351050  RH  054%=      5-min Rain = 0
KRO1 091736Z 33006KT 03/M05 A3042 RMK A01 T00341045  RH  056%=      5-min Rain = 0
KRO1 091737Z 33006KT 04/M04 A3042 RMK A01 T00351042  RH  057%=      5-min Rain = 0
KRO1 091738Z 32005KT 04/M04 A3042 RMK A01 T00351040  RH  058%=      5-min Rain = 0
KRO1 091739Z 33004KT 04/M04 A3041 RMK A01 T00351038  RH  059%=      5-min Rain = 0
KRO1 091740Z 33004KT 04/M04 A3041 RMK A01 T00361038  RH  058%=      5-min Rain = 0
KRO1 091741Z 34006KT 04/M04 A3041 RMK A01 T00361036  RH  059%=      5-min Rain = 0
KRO1 091742Z 34008KT 04/M05 A3041 RMK A01 T00381048  RH  053%=      5-min Rain = 0
KRO1 091743Z 32006KT 04/M04 A3041 RMK A01 T00381043  RH  055%=      5-min Rain = 0
KRO1 091744Z 33007KT 04/M04 A3041 RMK A01 T00391038  RH  057%=      5-min Rain = 0
KRO1 091745Z 33007KT 04/M04 A3041 RMK A01 T00391038  RH  057%=      5-min Rain = 0
KRO1 091746Z 33009KT 04/M05 A3041 RMK A01 T00391048  RH  053%=      5-min Rain = 0
KRO1 091747Z 33008KT 04/M06 A3041 RMK A01 T00401055  RH  050%=      5-min Rain = 0
KRO1 091748Z 34008KT 04/M05 A3041 RMK A01 T00401054  RH  051%=      5-min Rain = 0
KRO1 091749Z 33006KT 04/M05 A3041 RMK A01 T00401051  RH  052%=      5-min Rain = 0
KRO1 091750Z 32007KT 04/M05 A3041 RMK A01 T00411049  RH  052%=      5-min Rain = 0
KRO1 091751Z 33007KT 04/M05 A3041 RMK A01 T00411053  RH  050%=      5-min Rain = 0
KRO1 091752Z 34007KT 04/M06 A3041 RMK A01 T00411055  RH  050%=      5-min Rain = 0
KRO1 091753Z 35006KT 04/M05 A3041 RMK A01 T00411051  RH  051%=      5-min Rain = 0
KRO1 091754Z 35007KT 04/M06 A3041 RMK A01 T00411055  RH  050%=      5-min Rain = 0
KRO1 091755Z 35007KT 04/M06 A3041 RMK A01 T00411063  RH  047%=      5-min Rain = 0
KRO1 091756Z 35008KT 04/M06 A3041 RMK A01 T00421062  RH  047%=      5-min Rain = 0
KRO1 091757Z 35009KT 04/M06 A3041 RMK A01 T00421059  RH  048%=      5-min Rain = 0
KRO1 091758Z 35009KT 04/M06 A3041 RMK A01 T00431064  RH  046%=      5-min Rain = 0
KRO1 091759Z 35008KT 04/M06 A3041 RMK A01 T00431058  RH  048%=      5-min Rain = 0
KRO1 091800Z 36007KT 04/M05 A3041 RMK A01 T00441053  RH  049%=      5-min Rain = 0
KRO1 091801Z 35007KT 05/M06 A3041 RMK A01 T00451057  RH  048%=      5-min Rain = 0
KRO1 091802Z 34008KT 04/M06 A3041 RMK A01 T00441061  RH  046%=      5-min Rain = 0
KRO1 091803Z 35007KT 04/M06 A304 RMK A01 T00441060  RH  047%=      5-min Rain = 0
KRO1 091804Z 36006KT 04/M06 A304 RMK A01 T00441057  RH  048%=      5-min Rain = 0
KRO1 091805Z 35008KT 04/M06 A304 RMK A01 T00441060  RH  047%=      5-min Rain = 0
KRO1 091806Z 36008KT 04/M06 A304 RMK A01 T00441064  RH  045%=      5-min Rain = 0
KRO1 091807Z 36008KT 04/M06 A304 RMK A01 T00441056  RH  048%=      5-min Rain = 0
KRO1 091808Z 36009KT 04/M06 A304 RMK A01 T00441062  RH  046%=      5-min Rain = 0
KRO1 091809Z 36008KT 04/M06 A304 RMK A01 T00441062  RH  046%=      5-min Rain = 0
KRO1 091810Z 36008KT 04/M06 A304 RMK A01 T00441058  RH  048%=      5-min Rain = 0
KRO1 091811Z 36007KT 04/M06 A304 RMK A01 T00441059  RH  047%=      5-min Rain = 0
KRO1 091812Z 36008KT 04/M06 A304 RMK A01 T00441064  RH  045%=      5-min Rain = 0
KRO1 091813Z 00008KT 04/M06 A304 RMK A01 T00441060  RH  047%=      5-min Rain = 0
KRO1 091814Z 01008KT 04/M06 A304 RMK A01 T00441063  RH  046%=      5-min Rain = 0
KRO1 091815Z 01008KT 04/M06 A304 RMK A01 T00441061  RH  046%=      5-min Rain = 0
KRO1 091816Z 36008KT 04/M06 A304 RMK A01 T00441060  RH  047%=      5-min Rain = 0
KRO1 091817Z 36007KT 04/M06 A304 RMK A01 T00441056  RH  048%=      5-min Rain = 0
KRO1 091818Z 34008KT 05/M06 A304 RMK A01 T00451060  RH  046%=      5-min Rain = 0
KRO1 091819Z 35007KT 05/M06 A304 RMK A01 T00451060  RH  046%=      5-min Rain = 0
KRO1 091820Z 36009KT 05/M06 A3039 RMK A01 T00461062  RH  046%=      5-min Rain = 0
KRO1 091821Z 36008KT 05/M06 A3039 RMK A01 T00461060  RH  046%=      5-min Rain = 0
KRO1 091822Z 35008KT 05/M06 A3039 RMK A01 T00461059  RH  046%=      5-min Rain = 0
KRO1 091823Z 35007KT 05/M06 A3039 RMK A01 T00461064  RH  045%=      5-min Rain = 0
KRO1 091824Z 35006KT 05/M07 A3039 RMK A01 T00451066  RH  044%=      5-min Rain = 0
KRO1 091825Z 35007KT 05/M07 A3039 RMK A01 T00451069  RH  043%=      5-min Rain = 0
KRO1 091826Z 34006KT 04/M07 A3039 RMK A01 T00441073  RH  042%=      5-min Rain = 0
KRO1 091827Z 34007KT 04/M07 A3039 RMK A01 T00441067  RH  044%=      5-min Rain = 0
KRO1 091828Z 34007KT 05/M07 A3039 RMK A01 T00451069  RH  043%=      5-min Rain = 0
KRO1 091829Z 34005KT 05/M07 A3039 RMK A01 T00451070  RH  043%=      5-min Rain = 0
KRO1 091830Z 34006KT 05/M07 A3039 RMK A01 T00461072  RH  042%=      5-min Rain = 0
KRO1 091831Z 33005KT 05/M07 A3039 RMK A01 T00451074  RH  042%=      5-min Rain = 0
KRO1 091832Z 34005KT 05/M07 A3039 RMK A01 T00461067  RH  044%=      5-min Rain = 0
KRO1 091833Z 34005KT 05/M07 A3039 RMK A01 T00471066  RH  044%=      5-min Rain = 0
KRO1 091834Z 34004KT 05/M07 A3039 RMK A01 T00471066  RH  044%=      5-min Rain = 0
KRO1 091835Z 33005KT 05/M07 A3039 RMK A01 T00471074  RH  041%=      5-min Rain = 0
KRO1 091836Z 34006KT 05/M07 A3039 RMK A01 T00461072  RH  042%=      5-min Rain = 0
KRO1 091837Z 36006KT 05/M07 A3039 RMK A01 T00461072  RH  042%=      5-min Rain = 0
KRO1 091838Z 35006KT 05/M07 A3039 RMK A01 T00471065  RH  044%=      5-min Rain = 0
KRO1 091839Z 34005KT 05/M07 A3039 RMK A01 T00481068  RH  043%=      5-min Rain = 0
KRO1 091840Z 00003KT 05/M08 A3038 RMK A01 T00471075  RH  041%=      5-min Rain = 0
KRO1 091841Z 01005KT 05/M07 A3038 RMK A01 T00471066  RH  044%=      5-min Rain = 0
KRO1 091842Z 00005KT 05/M07 A3038 RMK A01 T00471067  RH  043%=      5-min Rain = 0
KRO1 091843Z 00005KT 05/M06 A3038 RMK A01 T00481063  RH  044%=      5-min Rain = 0
KRO1 091844Z 00006KT 05/M06 A3038 RMK A01 T00491056  RH  047%=      5-min Rain = 0
KRO1 091845Z 35007KT 05/M06 A3038 RMK A01 T00491062  RH  044%=      5-min Rain = 0
KRO1 091846Z 35008KT 05/M07 A3038 RMK A01 T00481069  RH  042%=      5-min Rain = 0
KRO1 091847Z 34007KT 05/M07 A3038 RMK A01 T00481067  RH  043%=      5-min Rain = 0
KRO1 091848Z 36006KT 05/M07 A3038 RMK A01 T00481066  RH  043%=      5-min Rain = 0
KRO1 091849Z 35005KT 05/M07 A3038 RMK A01 T00481068  RH  043%=      5-min Rain = 0
KRO1 091850Z 35007KT 05/M06 A3038 RMK A01 T00491058  RH  046%=      5-min Rain = 0
KRO1 091851Z 36008KT 05/M06 A3038 RMK A01 T00501061  RH  045%=      5-min Rain = 0
KRO1 091852Z 35008KT 05/M06 A3038 RMK A01 T00511061  RH  044%=      5-min Rain = 0
KRO1 091853Z 36007KT 05/M07 A3038 RMK A01 T00511072  RH  041%=      5-min Rain = 0
KRO1 091854Z 35006KT 05/M07 A3038 RMK A01 T00511074  RH  040%=      5-min Rain = 0
KRO1 091855Z 36007KT 05/M07 A3038 RMK A01 T00511074  RH  040%=      5-min Rain = 0
KRO1 091856Z 35006KT 05/M07 A3038 RMK A01 T00511069  RH  042%=      5-min Rain = 0
KRO1 091857Z 34006KT 05/M07 A3038 RMK A01 T00511067  RH  042%=      5-min Rain = 0
KRO1 091858Z 34005KT 05/M07 A3038 RMK A01 T00511072  RH  041%=      5-min Rain = 0
KRO1 091859Z 00006KT 05/M07 A3038 RMK A01 T00501071  RH  041%=      5-min Rain = 0
KRO1 091900Z 36006KT 05/M07 A3038 RMK A01 T00511066  RH  042%=      5-min Rain = 0
KRO1 091901Z 01006KT 05/M06 A3038 RMK A01 T00531062  RH  043%=      5-min Rain = 0
KRO1 091902Z 36007KT 05/M07 A3038 RMK A01 T00531067  RH  041%=      5-min Rain = 0
KRO1 091903Z 00006KT 05/M07 A3037 RMK A01 T00531066  RH  042%=      5-min Rain = 0
KRO1 091904Z 36006KT 05/M06 A3037 RMK A01 T00531058  RH  045%=      5-min Rain = 0
KRO1 091905Z 00007KT 06/M05 A3037 RMK A01 T00551050  RH  047%=      5-min Rain = 0
KRO1 091906Z 36005KT 05/M07 A3037 RMK A01 T00541067  RH  041%=      5-min Rain = 0
KRO1 091907Z 35005KT 05/M07 A3037 RMK A01 T00541066  RH  042%=      5-min Rain = 0
KRO1 091908Z 36008KT 05/M07 A3037 RMK A01 T00541066  RH  042%=      5-min Rain = 0
KRO1 091909Z 35006KT 05/M07 A3037 RMK A01 T00541068  RH  041%=      5-min Rain = 0
KRO1 091910Z 35005KT 05/M07 A3037 RMK A01 T00531072  RH  040%=      5-min Rain = 0
KRO1 091911Z 35007KT 05/M07 A3037 RMK A01 T00521071  RH  041%=      5-min Rain = 0
KRO1 091912Z 34006KT 05/M07 A3037 RMK A01 T00521068  RH  041%=      5-min Rain = 0
KRO1 091913Z 33005KT 05/M07 A3037 RMK A01 T00521071  RH  041%=      5-min Rain = 0
KRO1 091914Z 33005KT 05/M07 A3037 RMK A01 T00521066  RH  042%=      5-min Rain = 0
KRO1 091915Z 34006KT 05/M06 A3037 RMK A01 T00531056  RH  045%=      5-min Rain = 0
KRO1 091916Z 35006KT 05/M06 A3037 RMK A01 T00541057  RH  044%=      5-min Rain = 0
KRO1 091917Z 35007KT 06/M05 A3037 RMK A01 T00551054  RH  045%=      5-min Rain = 0
KRO1 091918Z 35007KT 06/M06 A3037 RMK A01 T00551060  RH  043%=      5-min Rain = 0
KRO1 091919Z 35005KT 05/M07 A3037 RMK A01 T00541069  RH  041%=      5-min Rain = 0
KRO1 091920Z 35005KT 05/M07 A3037 RMK A01 T00531067  RH  042%=      5-min Rain = 0
KRO1 091921Z 35007KT 05/M06 A3037 RMK A01 T00541063  RH  043%=      5-min Rain = 0
KRO1 091922Z 34006KT 05/M07 A3037 RMK A01 T00541066  RH  042%=      5-min Rain = 0
KRO1 091923Z 35007KT 06/M06 A3037 RMK A01 T00551061  RH  043%=      5-min Rain = 0
KRO1 091924Z 35007KT 06/M06 A3037 RMK A01 T00551060  RH  043%=      5-min Rain = 0
KRO1 091925Z 33007KT 06/M07 A3037 RMK A01 T00551066  RH  041%=      5-min Rain = 0
KRO1 091926Z 33008KT 06/M06 A3037 RMK A01 T00551059  RH  043%=      5-min Rain = 0
KRO1 091927Z 33006KT 06/M06 A3037 RMK A01 T00561063  RH  042%=      5-min Rain = 0
KRO1 091928Z 32007KT 06/M07 A3037 RMK A01 T00561071  RH  040%=      5-min Rain = 0
KRO1 091929Z 33007KT 06/M07 A3037 RMK A01 T00561068  RH  040%=      5-min Rain = 0
KRO1 091930Z 32005KT 06/M07 A3037 RMK A01 T00561072  RH  039%=      5-min Rain = 0
KRO1 091931Z 34005KT 05/M08 A3037 RMK A01 T00541077  RH  038%=      5-min Rain = 0
KRO1 091932Z 35005KT 06/M06 A3037 RMK A01 T00561055  RH  045%=      5-min Rain = 0
KRO1 091933Z 35004KT 06/M06 A3037 RMK A01 T00571057  RH  044%=      5-min Rain = 0
KRO1 091934Z 36005KT 06/M06 A3037 RMK A01 T00571056  RH  044%=      5-min Rain = 0
KRO1 091935Z 01006KT 06/M05 A3036 RMK A01 T00581052  RH  045%=      5-min Rain = 0
KRO1 091936Z 01004KT 06/M07 A3036 RMK A01 T00571072  RH  039%=      5-min Rain = 0
KRO1 091937Z 35003KT 06/M08 A3036 RMK A01 T00551076  RH  038%=      5-min Rain = 0
KRO1 091938Z 01003KT 06/M07 A3036 RMK A01 T00551068  RH  041%=      5-min Rain = 0
KRO1 091939Z 35005KT 06/M07 A3036 RMK A01 T00561067  RH  041%=      5-min Rain = 0
KRO1 091940Z 34007KT 06/M06 A3036 RMK A01 T00561060  RH  043%=      5-min Rain = 0
KRO1 091941Z 34007KT 06/M07 A3036 RMK A01 T00571066  RH  041%=      5-min Rain = 0
KRO1 091942Z 35005KT 06/M07 A3036 RMK A01 T00561066  RH  041%=      5-min Rain = 0
KRO1 091943Z 33005KT 06/M06 A3036 RMK A01 T00571061  RH  042%=      5-min Rain = 0
KRO1 091944Z 32005KT 06/M07 A3036 RMK A01 T00571067  RH  041%=      5-min Rain = 0
KRO1 091945Z 32004KT 06/M06 A3036 RMK A01 T00571064  RH  041%=      5-min Rain = 0
KRO1 091946Z 35005KT 06/M06 A3036 RMK A01 T00571059  RH  043%=      5-min Rain = 0
KRO1 091947Z 00005KT 06/M06 A3036 RMK A01 T00581059  RH  043%=      5-min Rain = 0
KRO1 091948Z 36004KT 06/M06 A3036 RMK A01 T00571064  RH  041%=      5-min Rain = 0
KRO1 091949Z 01005KT 06/M06 A3036 RMK A01 T00571064  RH  041%=      5-min Rain = 0
KRO1 091950Z 36005KT 06/M07 A3036 RMK A01 T00571070  RH  040%=      5-min Rain = 0
KRO1 091951Z 34007KT 06/M07 A3036 RMK A01 T00571066  RH  041%=      5-min Rain = 0
KRO1 091952Z 34007KT 06/M07 A3036 RMK A01 T00581066  RH  040%=      5-min Rain = 0
KRO1 091953Z 34006KT 06/M07 A3036 RMK A01 T00581067  RH  040%=      5-min Rain = 0
KRO1 091954Z 34005KT 06/M07 A3036 RMK A01 T00591065  RH  041%=      5-min Rain = 0
KRO1 091955Z 35005KT 06/M06 A3036 RMK A01 T00591058  RH  043%=      5-min Rain = 0
KRO1 091956Z 35004KT 06/M05 A3036 RMK A01 T00601054  RH  044%=      5-min Rain = 0
KRO1 091957Z 35004KT 06/M05 A3036 RMK A01 T00611053  RH  044%=      5-min Rain = 0
KRO1 091958Z 35005KT 06/M06 A3036 RMK A01 T00611062  RH  041%=      5-min Rain = 0
KRO1 091959Z 35005KT 06/M07 A3036 RMK A01 T00601066  RH  040%=      5-min Rain = 0
KRO1 092000Z 33006KT 06/M06 A3036 RMK A01 T00601058  RH  043%=      5-min Rain = 0
KRO1 092001Z 33006KT 06/M07 A3036 RMK A01 T00601067  RH  040%=      5-min Rain = 0
KRO1 092002Z 33005KT 06/M07 A3036 RMK A01 T00601071  RH  038%=      5-min Rain = 0
KRO1 092003Z 34005KT 06/M07 A3036 RMK A01 T00601070  RH  039%=      5-min Rain = 0
KRO1 092004Z 35003KT 06/M08 A3036 RMK A01 T00601076  RH  037%=      5-min Rain = 0
KRO1 092005Z 33005KT 06/M07 A3036 RMK A01 T00591073  RH  038%=      5-min Rain = 0
KRO1 092006Z 32005KT 06/M07 A3036 RMK A01 T00601068  RH  039%=      5-min Rain = 0
KRO1 092007Z 33003KT 06/M08 A3036 RMK A01 T00601080  RH  036%=      5-min Rain = 0
KRO1 092008Z 34005KT 06/M07 A3036 RMK A01 T00601071  RH  038%=      5-min Rain = 0
KRO1 092009Z 32003KT 06/M07 A3036 RMK A01 T00601071  RH  038%=      5-min Rain = 0
KRO1 092010Z 31003KT 06/M07 A3036 RMK A01 T00601074  RH  038%=      5-min Rain = 0
KRO1 092011Z 34003KT 06/M07 A3036 RMK A01 T00601066  RH  040%=      5-min Rain = 0
KRO1 092012Z 30004KT 06/M06 A3036 RMK A01 T00611057  RH  042%=      5-min Rain = 0
KRO1 092013Z 31004KT 06/M06 A3036 RMK A01 T00621064  RH  040%=      5-min Rain = 0
KRO1 092014Z 33006KT 06/M06 A3036 RMK A01 T00621057  RH  042%=      5-min Rain = 0
KRO1 092015Z 34006KT 06/M06 A3036 RMK A01 T00631058  RH  042%=      5-min Rain = 0
KRO1 092016Z 33006KT 06/M06 A3036 RMK A01 T00621063  RH  040%=      5-min Rain = 0
KRO1 092017Z 33006KT 06/M06 A3036 RMK A01 T00621059  RH  042%=      5-min Rain = 0
KRO1 092018Z 34005KT 06/M06 A3036 RMK A01 T00621055  RH  043%=      5-min Rain = 0
KRO1 092019Z 01005KT 06/M05 A3036 RMK A01 T00641051  RH  044%=      5-min Rain = 0
KRO1 092020Z 34005KT 06/M06 A3036 RMK A01 T00631062  RH  040%=      5-min Rain = 0
KRO1 092021Z 31005KT 06/M06 A3036 RMK A01 T00621064  RH  040%=      5-min Rain = 0
KRO1 092022Z 32006KT 06/M07 A3036 RMK A01 T00621066  RH  039%=      5-min Rain = 0
KRO1 092023Z 32007KT 06/M06 A3036 RMK A01 T00621063  RH  040%=      5-min Rain = 0
KRO1 092024Z 31005KT 06/M06 A3036 RMK A01 T00631060  RH  041%=      5-min Rain = 0
KRO1 092025Z 31004KT 06/M06 A3036 RMK A01 T00641061  RH  040%=      5-min Rain = 0
KRO1 092026Z 31005KT 06/M06 A3036 RMK A01 T00641061  RH  041%=      5-min Rain = 0
KRO1 092027Z 34005KT 06/M06 A3036 RMK A01 T00641058  RH  041%=      5-min Rain = 0
KRO1 092028Z 36007KT 06/M06 A3036 RMK A01 T00641061  RH  041%=      5-min Rain = 0
KRO1 092029Z 36007KT 06/M06 A3036 RMK A01 T00631057  RH  042%=      5-min Rain = 0
KRO1 092030Z 35005KT 06/M06 A3036 RMK A01 T00631060  RH  041%=      5-min Rain = 0
KRO1 092031Z 35007KT 06/M06 A3036 RMK A01 T00631056  RH  042%=      5-min Rain = 0
KRO1 092032Z 34007KT 06/M06 A3036 RMK A01 T00631059  RH  041%=      5-min Rain = 0
KRO1 092033Z 33006KT 06/M06 A3036 RMK A01 T00631059  RH  041%=      5-min Rain = 0
KRO1 092034Z 34006KT 06/M05 A3036 RMK A01 T00641053  RH  043%=      5-min Rain = 0
KRO1 092035Z 34006KT 07/M05 A3036 RMK A01 T00651054  RH  042%=      5-min Rain = 0
KRO1 092036Z 33005KT 07/M05 A3036 RMK A01 T00651049  RH  044%=      5-min Rain = 0
KRO1 092037Z 33005KT 07/M04 A3036 RMK A01 T00661044  RH  045%=      5-min Rain = 0
KRO1 092038Z 34004KT 07/M04 A3036 RMK A01 T00681041  RH  046%=      5-min Rain = 0
KRO1 092039Z 32004KT 07/M06 A3036 RMK A01 T00681062  RH  039%=      5-min Rain = 0
KRO1 092040Z 32005KT 07/M07 A3036 RMK A01 T00671066  RH  038%=      5-min Rain = 0
KRO1 092041Z 31004G10KT 07/M06 A3036 RMK A01 T00671064  RH  039%=      5-min Rain = 0
KRO1 092042Z 35006KT 07/M06 A3036 RMK A01 T00671058  RH  041%=      5-min Rain = 0
KRO1 092043Z 35006KT 07/M05 A3036 RMK A01 T00671052  RH  042%=      5-min Rain = 0
KRO1 092044Z 36004KT 07/M06 A3036 RMK A01 T00671055  RH  042%=      5-min Rain = 0
KRO1 092045Z 00005KT 07/M06 A3036 RMK A01 T00661059  RH  040%=      5-min Rain = 0
KRO1 092046Z 35006KT 07/M06 A3036 RMK A01 T00661061  RH  040%=      5-min Rain = 0
KRO1 092047Z 35004KT 07/M06 A3035 RMK A01 T00651059  RH  041%=      5-min Rain = 0
KRO1 092048Z 35003KT 07/M06 A3035 RMK A01 T00651058  RH  041%=      5-min Rain = 0
KRO1 092049Z 35003KT 07/M06 A3035 RMK A01 T00651063  RH  040%=      5-min Rain = 0
KRO1 092050Z 35003KT 07/M06 A3035 RMK A01 T00651061  RH  040%=      5-min Rain = 0
KRO1 092051Z 03003KT 07/M06 A3035 RMK A01 T00651058  RH  041%=      5-min Rain = 0
KRO1 092052Z 02003KT 07/M06 A3035 RMK A01 T00651058  RH  041%=      5-min Rain = 0
KRO1 092053Z 00003KT 07/M06 A3035 RMK A01 T00661057  RH  041%=      5-min Rain = 0
KRO1 092054Z 34005KT 07/M05 A3035 RMK A01 T00671049  RH  043%=      5-min Rain = 0
KRO1 092055Z 35007KT 07/M06 A3035 RMK A01 T00681055  RH  041%=      5-min Rain = 0
KRO1 092056Z 35006KT 07/M06 A3035 RMK A01 T00671056  RH  041%=      5-min Rain = 0
KRO1 092057Z 34006KT 07/M06 A3035 RMK A01 T00671061  RH  039%=      5-min Rain = 0
KRO1 092058Z 33005KT 07/M06 A3035 RMK A01 T00661062  RH  039%=      5-min Rain = 0
KRO1 092059Z 32007KT 07/M06 A3035 RMK A01 T00661056  RH  041%=      5-min Rain = 0
KRO1 092100Z 31007KT 07/M06 A3035 RMK A01 T00671063  RH  039%=      5-min Rain = 0
KRO1 092101Z 32005KT 07/M07 A3035 RMK A01 T00671066  RH  038%=      5-min Rain = 0
KRO1 092102Z 32005KT 07/M07 A3035 RMK A01 T00671072  RH  036%=      5-min Rain = 0
KRO1 092103Z 31005KT 07/M07 A3035 RMK A01 T00671068  RH  037%=      5-min Rain = 0
KRO1 092104Z 29005KT 07/M07 A3035 RMK A01 T00671067  RH  038%=      5-min Rain = 0
KRO1 092105Z 31005KT 07/M07 A3035 RMK A01 T00681067  RH  037%=      5-min Rain = 0
KRO1 092106Z 31004KT 07/M07 A3035 RMK A01 T00681071  RH  036%=      5-min Rain = 0
KRO1 092107Z 31005KT 07/M07 A3035 RMK A01 T00681073  RH  036%=      5-min Rain = 0
KRO1 092108Z 30005KT 07/M06 A3035 RMK A01 T00691061  RH  039%=      5-min Rain = 0
KRO1 092109Z 32006KT 07/M05 A3035 RMK A01 T00711048  RH  042%=      5-min Rain = 0
KRO1 092110Z 32006KT 07/M06 A3035 RMK A01 T00721058  RH  039%=      5-min Rain = 0
KRO1 092111Z 31005KT 07/M07 A3035 RMK A01 T00701067  RH  037%=      5-min Rain = 0
KRO1 092112Z 33005KT 07/M07 A3035 RMK A01 T00691068  RH  037%=      5-min Rain = 0
KRO1 092113Z 32006KT 07/M07 A3035 RMK A01 T00691065  RH  038%=      5-min Rain = 0
KRO1 092114Z 32007KT 07/M07 A3035 RMK A01 T00691066  RH  038%=      5-min Rain = 0
KRO1 092115Z 31007KT 07/M06 A3035 RMK A01 T00691059  RH  040%=      5-min Rain = 0
KRO1 092116Z 30006KT 07/M07 A3035 RMK A01 T00691065  RH  038%=      5-min Rain = 0
KRO1 092117Z 30007KT 07/M07 A3035 RMK A01 T00691066  RH  038%=      5-min Rain = 0
KRO1 092118Z 29008KT 07/M07 A3035 RMK A01 T00691067  RH  037%=      5-min Rain = 0
KRO1 092119Z 31007KT 07/M06 A3035 RMK A01 T00701059  RH  039%=      5-min Rain = 0
KRO1 092120Z 32005KT 07/M05 A3035 RMK A01 T00711053  RH  041%=      5-min Rain = 0
KRO1 092121Z 32006KT 07/M06 A3035 RMK A01 T00711059  RH  039%=      5-min Rain = 0
KRO1 092122Z 31005KT 07/M05 A3035 RMK A01 T00711054  RH  040%=      5-min Rain = 0
KRO1 092123Z 30006KT 07/M06 A3035 RMK A01 T00721055  RH  040%=      5-min Rain = 0
KRO1 092124Z 30004KT 07/M07 A3035 RMK A01 T00711074  RH  035%=      5-min Rain = 0
KRO1 092125Z 32003KT 07/M07 A3035 RMK A01 T00711069  RH  036%=      5-min Rain = 0
KRO1 092126Z 30006KT 07/M06 A3035 RMK A01 T00701064  RH  038%=      5-min Rain = 0
KRO1 092127Z 33008KT 07/M06 A3034 RMK A01 T00711057  RH  040%=      5-min Rain = 0
KRO1 092128Z 34009KT 07/M06 A3035 RMK A01 T00721055  RH  040%=      5-min Rain = 0
KRO1 092129Z 34008KT 07/M05 A3035 RMK A01 T00711054  RH  041%=      5-min Rain = 0
KRO1 092130Z 35008KT 07/M05 A3035 RMK A01 T00701049  RH  043%=      5-min Rain = 0
KRO1 092131Z 35007KT 07/M06 A3035 RMK A01 T00691056  RH  041%=      5-min Rain = 0
KRO1 092132Z 35005KT 07/M06 A3035 RMK A01 T00691055  RH  041%=      5-min Rain = 0
KRO1 092133Z 35006KT 07/M05 A3035 RMK A01 T00701054  RH  041%=      5-min Rain = 0
KRO1 092134Z 36005KT 07/M06 A3035 RMK A01 T00691056  RH  040%=      5-min Rain = 0
KRO1 092135Z 35004KT 07/M05 A3035 RMK A01 T00691051  RH  042%=      5-min Rain = 0
KRO1 092136Z 35004KT 07/M05 A3035 RMK A01 T00701047  RH  043%=      5-min Rain = 0
KRO1 092137Z 35004KT 07/M06 A3035 RMK A01 T00711056  RH  040%=      5-min Rain = 0
KRO1 092138Z 36005KT 07/M06 A3035 RMK A01 T00701058  RH  040%=      5-min Rain = 0
KRO1 092139Z 00006KT 07/M06 A3035 RMK A01 T00691061  RH  039%=      5-min Rain = 0
KRO1 092140Z 32006KT 07/M05 A3035 RMK A01 T00691050  RH  042%=      5-min Rain = 0
KRO1 092141Z 31004KT 07/M06 A3035 RMK A01 T00711055  RH  041%=      5-min Rain = 0
KRO1 092142Z 31003KT 07/M07 A3035 RMK A01 T00711069  RH  036%=      5-min Rain = 0
KRO1 092143Z 33003KT 07/M07 A3035 RMK A01 T00711068  RH  036%=      5-min Rain = 0
KRO1 092144Z 33004KT 07/M07 A3035 RMK A01 T00711066  RH  037%=      5-min Rain = 0
KRO1 092145Z 33004KT 07/M06 A3035 RMK A01 T00711058  RH  039%=      5-min Rain = 0
KRO1 092146Z 35005KT 07/M06 A3035 RMK A01 T00721060  RH  039%=      5-min Rain = 0
KRO1 092147Z 32005KT 07/M06 A3035 RMK A01 T00711062  RH  038%=      5-min Rain = 0
KRO1 092148Z 33005KT 07/M07 A3035 RMK A01 T00721066  RH  037%=      5-min Rain = 0
KRO1 092149Z 31006KT 07/M07 A3035 RMK A01 T00721071  RH  035%=      5-min Rain = 0
KRO1 092150Z 32005KT 07/M07 A3035 RMK A01 T00721066  RH  037%=      5-min Rain = 0
KRO1 092151Z 32004KT 07/M07 A3035 RMK A01 T00711073  RH  035%=      5-min Rain = 0
KRO1 092152Z 33004KT 07/M08 A3035 RMK A01 T00711075  RH  034%=      5-min Rain = 0
KRO1 092153Z 33005KT 07/M06 A3035 RMK A01 T00711062  RH  038%=      5-min Rain = 0
KRO1 092154Z 34004KT 07/M05 A3035 RMK A01 T00721054  RH  040%=      5-min Rain = 0
KRO1 092155Z 33004KT 07/M05 A3035 RMK A01 T00721054  RH  040%=      5-min Rain = 0
KRO1 092156Z 32004KT 07/M06 A3035 RMK A01 T00721059  RH  039%=      5-min Rain = 0
KRO1 092157Z 34005KT 07/M05 A3035 RMK A01 T00721052  RH  041%=      5-min Rain = 0
KRO1 092158Z 33005KT 07/M06 A3035 RMK A01 T00731055  RH  040%=      5-min Rain = 0
KRO1 092159Z 32005KT 07/M07 A3035 RMK A01 T00731067  RH  036%=      5-min Rain = 0
KRO1 092200Z 33005KT 07/M07 A3035 RMK A01 T00721069  RH  036%=      5-min Rain = 0
KRO1 092201Z 35005KT 07/M06 A3035 RMK A01 T00721061  RH  038%=      5-min Rain = 0
KRO1 092202Z 35007KT 07/M06 A3035 RMK A01 T00721055  RH  040%=      5-min Rain = 0
KRO1 092203Z 35006KT 07/M06 A3035 RMK A01 T00721056  RH  040%=      5-min Rain = 0
KRO1 092204Z 36005KT 07/M06 A3035 RMK A01 T00701064  RH  038%=      5-min Rain = 0
KRO1 092205Z 01005KT 07/M06 A3035 RMK A01 T00691056  RH  040%=      5-min Rain = 0
KRO1 092206Z 35006KT 07/M06 A3035 RMK A01 T00691056  RH  041%=      5-min Rain = 0
KRO1 092207Z 35007KT 07/M06 A3035 RMK A01 T00691058  RH  040%=      5-min Rain = 0
KRO1 092208Z 36007KT 07/M06 A3035 RMK A01 T00691056  RH  041%=      5-min Rain = 0
KRO1 092209Z 36007KT 07/M06 A3035 RMK A01 T00691059  RH  040%=      5-min Rain = 0
KRO1 092210Z 00008KT 07/M06 A3035 RMK A01 T00681062  RH  039%=      5-min Rain = 0
KRO1 092211Z 01006KT 07/M07 A3035 RMK A01 T00671065  RH  038%=      5-min Rain = 0
KRO1 092212Z 01007KT 07/M06 A3035 RMK A01 T00671055  RH  041%=      5-min Rain = 0
KRO1 092213Z 01007KT 07/M06 A3035 RMK A01 T00681057  RH  041%=      5-min Rain = 0
KRO1 092214Z 01007KT 07/M06 A3035 RMK A01 T00681063  RH  039%=      5-min Rain = 0
KRO1 092215Z 00006KT 07/M05 A3035 RMK A01 T00671053  RH  042%=      5-min Rain = 0
KRO1 092216Z 35007KT 07/M05 A3035 RMK A01 T00681049  RH  043%=      5-min Rain = 0
KRO1 092217Z 35007KT 07/M06 A3035 RMK A01 T00681061  RH  039%=      5-min Rain = 0
KRO1 092218Z 36007KT 07/M06 A3035 RMK A01 T00681058  RH  040%=      5-min Rain = 0
KRO1 092219Z 01006KT 07/M06 A3035 RMK A01 T00681058  RH  040%=      5-min Rain = 0
KRO1 092220Z 01007KT 07/M05 A3035 RMK A01 T00681054  RH  042%=      5-min Rain = 0
KRO1 092221Z 36008KT 07/M05 A3035 RMK A01 T00681054  RH  041%=      5-min Rain = 0
KRO1 092222Z 36008KT 07/M06 A3035 RMK A01 T00681055  RH  041%=      5-min Rain = 0
KRO1 092223Z 00007KT 07/M06 A3035 RMK A01 T00681059  RH  040%=      5-min Rain = 0
KRO1 092224Z 00006KT 07/M06 A3035 RMK A01 T00671060  RH  040%=      5-min Rain = 0
KRO1 092225Z 00006KT 07/M06 A3035 RMK A01 T00671062  RH  039%=      5-min Rain = 0
KRO1 092226Z 36007KT 07/M06 A3035 RMK A01 T00671055  RH  041%=      5-min Rain = 0
KRO1 092227Z 35007KT 07/M05 A3035 RMK A01 T00681053  RH  042%=      5-min Rain = 0
KRO1 092228Z 36007KT 07/M06 A3035 RMK A01 T00671060  RH  040%=      5-min Rain = 0
KRO1 092229Z 00007KT 07/M05 A3035 RMK A01 T00661053  RH  042%=      5-min Rain = 0
KRO1 092230Z 00007KT 07/M05 A3035 RMK A01 T00671053  RH  042%=      5-min Rain = 0
KRO1 092231Z 00007KT 07/M05 A3035 RMK A01 T00671052  RH  042%=      5-min Rain = 0
KRO1 092232Z 36008KT 07/M05 A3035 RMK A01 T00661054  RH  042%=      5-min Rain = 0
KRO1 092233Z 36007KT 07/M05 A3035 RMK A01 T00661051  RH  043%=      5-min Rain = 0
KRO1 092234Z 00006KT 07/M05 A3035 RMK A01 T00661048  RH  044%=      5-min Rain = 0
KRO1 092235Z 01006KT 07/M04 A3035 RMK A01 T00661041  RH  046%=      5-min Rain = 0
KRO1 092236Z 00007KT 07/M04 A3035 RMK A01 T00661042  RH  046%=      5-min Rain = 0
KRO1 092237Z 00007KT 07/M05 A3035 RMK A01 T00651053  RH  042%=      5-min Rain = 0
KRO1 092238Z 01007KT 07/M06 A3035 RMK A01 T00651055  RH  042%=      5-min Rain = 0
KRO1 092239Z 01008KT 06/M06 A3035 RMK A01 T00641059  RH  041%=      5-min Rain = 0
KRO1 092240Z 36008KT 06/M06 A3035 RMK A01 T00641056  RH  042%=      5-min Rain = 0
KRO1 092241Z 36007KT 06/M06 A3035 RMK A01 T00641055  RH  042%=      5-min Rain = 0
KRO1 092242Z 36008KT 06/M06 A3035 RMK A01 T00641058  RH  041%=      5-min Rain = 0
KRO1 092243Z 36006KT 06/M06 A3035 RMK A01 T00631056  RH  042%=      5-min Rain = 0
KRO1 092244Z 36008KT 06/M05 A3036 RMK A01 T00631054  RH  043%=      5-min Rain = 0
KRO1 092245Z 00007KT 06/M05 A3036 RMK A01 T00631054  RH  043%=      5-min Rain = 0
KRO1 092246Z 00008KT 06/M05 A3036 RMK A01 T00631053  RH  043%=      5-min Rain = 0
KRO1 092247Z 00008KT 06/M05 A3036 RMK A01 T00631052  RH  044%=      5-min Rain = 0
KRO1 092248Z 00007KT 06/M06 A3036 RMK A01 T00621057  RH  042%=      5-min Rain = 0
KRO1 092249Z 00006KT 06/M06 A3036 RMK A01 T00621056  RH  043%=      5-min Rain = 0
KRO1 092250Z 36007KT 06/M05 A3036 RMK A01 T00621052  RH  044%=      5-min Rain = 0
KRO1 092251Z 00007KT 06/M05 A3036 RMK A01 T00621053  RH  044%=      5-min Rain = 0
KRO1 092252Z 00008KT 06/M05 A3036 RMK A01 T00611053  RH  044%=      5-min Rain = 0
KRO1 092253Z 36008KT 06/M05 A3036 RMK A01 T00621051  RH  044%=      5-min Rain = 0
KRO1 092254Z 36007KT 06/M05 A3036 RMK A01 T00611052  RH  044%=      5-min Rain = 0
KRO1 092255Z 36006KT 06/M05 A3036 RMK A01 T00611049  RH  045%=      5-min Rain = 0
KRO1 092256Z 36007KT 06/M05 A3036 RMK A01 T00611050  RH  045%=      5-min Rain = 0
KRO1 092257Z 36005KT 06/M05 A3036 RMK A01 T00601050  RH  045%=      5-min Rain = 0
KRO1 092258Z 36006KT 06/M05 A3036 RMK A01 T00601045  RH  047%=      5-min Rain = 0
KRO1 092259Z 36006KT 06/M05 A3036 RMK A01 T00601049  RH  045%=      5-min Rain = 0
KRO1 092300Z 35006KT 06/M04 A3036 RMK A01 T00601044  RH  047%=      5-min Rain = 0
KRO1 092301Z 35007KT 06/M05 A3036 RMK A01 T00591046  RH  047%=      5-min Rain = 0
KRO1 092302Z 35008KT 06/M05 A3036 RMK A01 T00591052  RH  045%=      5-min Rain = 0
KRO1 092303Z 36007KT 06/M05 A3036 RMK A01 T00591054  RH  044%=      5-min Rain = 0
KRO1 092304Z 36007KT 06/M05 A3036 RMK A01 T00591050  RH  046%=      5-min Rain = 0
KRO1 092305Z 00007KT 06/M05 A3036 RMK A01 T00581049  RH  046%=      5-min Rain = 0
KRO1 092306Z 00007KT 06/M05 A3036 RMK A01 T00581049  RH  046%=      5-min Rain = 0
KRO1 092307Z 36007KT 06/M05 A3036 RMK A01 T00581050  RH  046%=      5-min Rain = 0
KRO1 092308Z 36007KT 06/M05 A3036 RMK A01 T00571048  RH  047%=      5-min Rain = 0
KRO1 092309Z 00007KT 06/M05 A3036 RMK A01 T00571047  RH  047%=      5-min Rain = 0
KRO1 092310Z 36006KT 06/M04 A3036 RMK A01 T00571043  RH  049%=      5-min Rain = 0
KRO1 092311Z 36006KT 06/M05 A3036 RMK A01 T00561045  RH  048%=      5-min Rain = 0
KRO1 092312Z 36007KT 06/M05 A3036 RMK A01 T00561045  RH  048%=      5-min Rain = 0
KRO1 092313Z 36006KT 06/M05 A3036 RMK A01 T00561045  RH  048%=      5-min Rain = 0
KRO1 092314Z 35005KT 06/M04 A3036 RMK A01 T00551039  RH  051%=      5-min Rain = 0
KRO1 092315Z 35005KT 05/M04 A3036 RMK A01 T00541036  RH  052%=      5-min Rain = 0
KRO1 092316Z 35005KT 05/M04 A3036 RMK A01 T00541036  RH  052%=      5-min Rain = 0
KRO1 092317Z 36006KT 05/M04 A3036 RMK A01 T00531036  RH  053%=      5-min Rain = 0
KRO1 092318Z 35006KT 05/M04 A3036 RMK A01 T00531038  RH  052%=      5-min Rain = 0
KRO1 092319Z 35006KT 05/M04 A3036 RMK A01 T00521040  RH  051%=      5-min Rain = 0
KRO1 092320Z 35006KT 05/M04 A3036 RMK A01 T00521043  RH  050%=      5-min Rain = 0
KRO1 092321Z 35005KT 05/M04 A3036 RMK A01 T00521040  RH  051%=      5-min Rain = 0
KRO1 092322Z 35005KT 05/M04 A3036 RMK A01 T00521037  RH  053%=      5-min Rain = 0
KRO1 092323Z 34005KT 05/M04 A3036 RMK A01 T00511037  RH  053%=      5-min Rain = 0
KRO1 092324Z 34005KT 05/M04 A3036 RMK A01 T00501036  RH  054%=      5-min Rain = 0
KRO1 092325Z 34006KT 05/M04 A3036 RMK A01 T00501036  RH  054%=      5-min Rain = 0
KRO1 092326Z 34006KT 05/M04 A3036 RMK A01 T00501037  RH  054%=      5-min Rain = 0
KRO1 092327Z 34006KT 05/M04 A3036 RMK A01 T00491037  RH  054%=      5-min Rain = 0
KRO1 092328Z 34006KT 05/M04 A3036 RMK A01 T00491039  RH  053%=      5-min Rain = 0
KRO1 092329Z 34006KT 05/M04 A3036 RMK A01 T00481038  RH  053%=      5-min Rain = 0
KRO1 092330Z 34006KT 05/M04 A3036 RMK A01 T00471038  RH  054%=      5-min Rain = 0
KRO1 092331Z 34006KT 05/M04 A3036 RMK A01 T00471039  RH  054%=      5-min Rain = 0
KRO1 092332Z 34006KT 05/M04 A3036 RMK A01 T00461038  RH  054%=      5-min Rain = 0
KRO1 092333Z 34005KT 05/M04 A3036 RMK A01 T00461038  RH  054%=      5-min Rain = 0
KRO1 092334Z 34005KT 05/M04 A3036 RMK A01 T00451038  RH  054%=      5-min Rain = 0
KRO1 092335Z 34005KT 05/M04 A3036 RMK A01 T00451037  RH  055%=      5-min Rain = 0
KRO1 092336Z 35005KT 04/M04 A3036 RMK A01 T00441036  RH  056%=      5-min Rain = 0
KRO1 092337Z 35005KT 04/M04 A3036 RMK A01 T00431036  RH  056%=      5-min Rain = 0
KRO1 092338Z 35005KT 04/M04 A3036 RMK A01 T00431035  RH  057%=      5-min Rain = 0
KRO1 092339Z 35005KT 04/M03 A3036 RMK A01 T00421034  RH  058%=      5-min Rain = 0
KRO1 092340Z 35005KT 04/M03 A3036 RMK A01 T00411034  RH  058%=      5-min Rain = 0
KRO1 092341Z 35005KT 04/M03 A3036 RMK A01 T00411033  RH  058%=      5-min Rain = 0
KRO1 092342Z 35005KT 04/M03 A3036 RMK A01 T00401033  RH  059%=      5-min Rain = 0
KRO1 092343Z 35005KT 04/M03 A3036 RMK A01 T00391033  RH  059%=      5-min Rain = 0
KRO1 092344Z 35005KT 04/M03 A3036 RMK A01 T00391032  RH  060%=      5-min Rain = 0
KRO1 092345Z 35005KT 04/M03 A3036 RMK A01 T00381031  RH  061%=      5-min Rain = 0
KRO1 092346Z 35004KT 04/M03 A3036 RMK A01 T00381031  RH  061%=      5-min Rain = 0
KRO1 092347Z 34004KT 04/M03 A3036 RMK A01 T00371031  RH  061%=      5-min Rain = 0
KRO1 092348Z 34004KT 04/M03 A3036 RMK A01 T00371030  RH  062%=      5-min Rain = 0
KRO1 092349Z 34004KT 04/M03 A3036 RMK A01 T00361029  RH  062%=      5-min Rain = 0
KRO1 092350Z 34005KT 04/M03 A3036 RMK A01 T00361030  RH  062%=      5-min Rain = 0
KRO1 092351Z 34004KT 04/M03 A3036 RMK A01 T00361030  RH  062%=      5-min Rain = 0
KRO1 092352Z 34004KT 04/M03 A3036 RMK A01 T00361029  RH  063%=      5-min Rain = 0
KRO1 092353Z 34004KT 04/M03 A3036 RMK A01 T00351029  RH  063%=      5-min Rain = 0
KRO1 092354Z 35004KT 04/M03 A3036 RMK A01 T00351029  RH  063%=      5-min Rain = 0
KRO1 092355Z 35005KT 04/M03 A3036 RMK A01 T00351028  RH  063%=      5-min Rain = 0
KRO1 092356Z 35005KT 03/M03 A3036 RMK A01 T00341028  RH  064%=      5-min Rain = 0
KRO1 092357Z 35005KT 03/M03 A3036 RMK A01 T00341027  RH  064%=      5-min Rain = 0
KRO1 092358Z 35005KT 03/M03 A3036 RMK A01 T00331028  RH  064%=      5-min Rain = 0
KRO1 092359Z 35005KT 03/M03 A3036 RMK A01 T00331028  RH  064%=      5-min Rain = 0
KRO1 100000Z 35004KT 03/M03 A3036 RMK A01 T00331029  RH  064%=      5-min Rain = 0
KRO1 100001Z 35004KT 03/M03 A3036 RMK A01 T00321029  RH  064%=      5-min Rain = 0
KRO1 100002Z 35004KT 03/M03 A3036 RMK A01 T00321030  RH  064%=      5-min Rain = 0
KRO1 100003Z 35004KT 03/M03 A3037 RMK A01 T00321031  RH  064%=      5-min Rain = 0
KRO1 100004Z 35003KT 03/M03 A3037 RMK A01 T00321032  RH  063%=      5-min Rain = 0
KRO1 100005Z 35003KT 03/M03 A3037 RMK A01 T00321033  RH  063%=      5-min Rain = 0
KRO1 100006Z 35003KT 03/M03 A3037 RMK A01 T00321034  RH  062%=      5-min Rain = 0
KRO1 100007Z 35003KT 03/M03 A3037 RMK A01 T00321034  RH  062%=      5-min Rain = 0
KRO1 100008Z 35003KT 03/M04 A3037 RMK A01 T00321035  RH  061%=      5-min Rain = 0
KRO1 100009Z 35003KT 03/M04 A3037 RMK A01 T00321036  RH  061%=      5-min Rain = 0
KRO1 100010Z 35003KT 03/M04 A3037 RMK A01 T00321036  RH  061%=      5-min Rain = 0
KRO1 100011Z 34003KT 03/M04 A3037 RMK A01 T00321037  RH  061%=      5-min Rain = 0
KRO1 100012Z 34003KT 03/M04 A3037 RMK A01 T00321037  RH  061%=      5-min Rain = 0
KRO1 100013Z 34003KT 03/M04 A3037 RMK A01 T00321036  RH  061%=      5-min Rain = 0
KRO1 100014Z 34003KT 03/M04 A3037 RMK A01 T00321035  RH  062%=      5-min Rain = 0
KRO1 100015Z 34003KT 03/M04 A3037 RMK A01 T00311035  RH  062%=      5-min Rain = 0
KRO1 100016Z 34003KT 03/M04 A3037 RMK A01 T00311035  RH  062%=      5-min Rain = 0
KRO1 100017Z 34003KT 03/M03 A3037 RMK A01 T00311034  RH  062%=      5-min Rain = 0
KRO1 100018Z 34003KT 03/M03 A3037 RMK A01 T00311034  RH  062%=      5-min Rain = 0
KRO1 100019Z 34003KT 03/M03 A3037 RMK A01 T00301034  RH  062%=      5-min Rain = 0
KRO1 100020Z 34003KT 03/M04 A3037 RMK A01 T00301035  RH  062%=      5-min Rain = 0
KRO1 100021Z 34004KT 03/M04 A3037 RMK A01 T00301036  RH  062%=      5-min Rain = 0
KRO1 100022Z 34004KT 03/M04 A3037 RMK A01 T00301037  RH  062%=      5-min Rain = 0
KRO1 100023Z 34004KT 03/M04 A3037 RMK A01 T00301038  RH  061%=      5-min Rain = 0
KRO1 100024Z 34004KT 03/M04 A3037 RMK A01 T00301038  RH  061%=      5-min Rain = 0
KRO1 100025Z 34004KT 03/M04 A3037 RMK A01 T00301039  RH  060%=      5-min Rain = 0
KRO1 100026Z 34004KT 03/M04 A3037 RMK A01 T00301040  RH  060%=      5-min Rain = 0
KRO1 100027Z 34003KT 03/M04 A3037 RMK A01 T00301041  RH  060%=      5-min Rain = 0
KRO1 100028Z 34004KT 03/M04 A3037 RMK A01 T00301041  RH  060%=      5-min Rain = 0
KRO1 100029Z 34004KT 03/M04 A3037 RMK A01 T00301040  RH  060%=      5-min Rain = 0
KRO1 100030Z 35004KT 03/M04 A3037 RMK A01 T00301041  RH  060%=      5-min Rain = 0
KRO1 100031Z 35004KT 03/M04 A3037 RMK A01 T00291041  RH  060%=      5-min Rain = 0
KRO1 100032Z 35004KT 03/M04 A3037 RMK A01 T00291040  RH  060%=      5-min Rain = 0
KRO1 100033Z 35004KT 03/M04 A3037 RMK A01 T00281041  RH  061%=      5-min Rain = 0
KRO1 100034Z 35004KT 03/M04 A3037 RMK A01 T00271040  RH  061%=      5-min Rain = 0
KRO1 100035Z 35003KT 03/M04 A3037 RMK A01 T00271040  RH  061%=      5-min Rain = 0
KRO1 100036Z 35003KT 03/M04 A3037 RMK A01 T00271041  RH  061%=      5-min Rain = 0
KRO1 100037Z 35003KT 03/M04 A3037 RMK A01 T00271043  RH  060%=      5-min Rain = 0
KRO1 100038Z 35003KT 03/M05 A3037 RMK A01 T00271047  RH  058%=      5-min Rain = 0
KRO1 100039Z 35003KT 03/M05 A3037 RMK A01 T00281049  RH  057%=      5-min Rain = 0
KRO1 100040Z 35003KT 03/M05 A3037 RMK A01 T00291048  RH  057%=      5-min Rain = 0
KRO1 100041Z 35003KT 03/M05 A3037 RMK A01 T00301050  RH  056%=      5-min Rain = 0
KRO1 100042Z 34003KT 03/M05 A3037 RMK A01 T00311049  RH  056%=      5-min Rain = 0
KRO1 100043Z 34003KT 03/M05 A3037 RMK A01 T00321052  RH  054%=      5-min Rain = 0
KRO1 100044Z 34003KT 03/M06 A3037 RMK A01 T00341059  RH  050%=      5-min Rain = 0
KRO1 100045Z 34003KT 04/M06 A3037 RMK A01 T00361061  RH  049%=      5-min Rain = 0
KRO1 100046Z 34003KT 04/M06 A3037 RMK A01 T00381064  RH  048%=      5-min Rain = 0
KRO1 100047Z 34003KT 04/M06 A3037 RMK A01 T00381064  RH  047%=      5-min Rain = 0
KRO1 100048Z 33003KT 04/M06 A3037 RMK A01 T00381064  RH  047%=      5-min Rain = 0
KRO1 100049Z 33003KT 04/M06 A3037 RMK A01 T00391064  RH  047%=      5-min Rain = 0
KRO1 100050Z 33003KT 04/M06 A3037 RMK A01 T00391063  RH  047%=      5-min Rain = 0
KRO1 100051Z 33003KT 04/M06 A3037 RMK A01 T00381062  RH  048%=      5-min Rain = 0
KRO1 100052Z 33003KT 04/M06 A3037 RMK A01 T00371061  RH  048%=      5-min Rain = 0
KRO1 100053Z 32003KT 04/M06 A3037 RMK A01 T00361060  RH  049%=      5-min Rain = 0
KRO1 100054Z 32003KT 04/M06 A3037 RMK A01 T00351059  RH  050%=      5-min Rain = 0
KRO1 100055Z 32003KT 04/M06 A3037 RMK A01 T00351060  RH  050%=      5-min Rain = 0
KRO1 100056Z 32003KT 04/M06 A3037 RMK A01 T00351063  RH  049%=      5-min Rain = 0
KRO1 100057Z 32003KT 04/M07 A3037 RMK A01 T00351065  RH  048%=      5-min Rain = 0
KRO1 100058Z 31003KT 04/M06 A3037 RMK A01 T00361064  RH  048%=      5-min Rain = 0
KRO1 100059Z 31003KT 04/M06 A3037 RMK A01 T00361061  RH  049%=      5-min Rain = 0
KRO1 100100Z 30003KT 04/M06 A3037 RMK A01 T00351059  RH  050%=      5-min Rain = 0
KRO1 100101Z 30003KT 03/M06 A3037 RMK A01 T00341059  RH  051%=      5-min Rain = 0
KRO1 100102Z 30003KT 03/M06 A3037 RMK A01 T00341063  RH  049%=      5-min Rain = 0
KRO1 100103Z 30003KT 03/M06 A3037 RMK A01 T00341060  RH  050%=      5-min Rain = 0
KRO1 100104Z 29003KT 03/M06 A3037 RMK A01 T00331056  RH  052%=      5-min Rain = 0
KRO1 100105Z 29003KT 03/M05 A3037 RMK A01 T00311054  RH  054%=      5-min Rain = 0
KRO1 100106Z 29003KT 03/M05 A3037 RMK A01 T00291052  RH  055%=      5-min Rain = 0
KRO1 100107Z 29003KT 03/M05 A3037 RMK A01 T00281051  RH  056%=      5-min Rain = 0
KRO1 100108Z 29003KT 03/M05 A3037 RMK A01 T00261047  RH  059%=      5-min Rain = 0
KRO1 100109Z 29003KT 03/M05 A3037 RMK A01 T00251045  RH  060%=      5-min Rain = 0
KRO1 100110Z 29004KT 02/M04 A3037 RMK A01 T00231043  RH  062%=      5-min Rain = 0
KRO1 100111Z 29004KT 02/M04 A3037 RMK A01 T00211042  RH  063%=      5-min Rain = 0
KRO1 100112Z 29004KT 02/M04 A3037 RMK A01 T00201042  RH  064%=      5-min Rain = 0
KRO1 100113Z 29004KT 02/M04 A3038 RMK A01 T00191042  RH  064%=      5-min Rain = 0
KRO1 100114Z 29004KT 02/M04 A3038 RMK A01 T00191042  RH  064%=      5-min Rain = 0
KRO1 100115Z 30004KT 02/M04 A3037 RMK A01 T00181043  RH  064%=      5-min Rain = 0
KRO1 100116Z 30004KT 02/M04 A3037 RMK A01 T00181043  RH  064%=      5-min Rain = 0
KRO1 100117Z 30004KT 02/M04 A3037 RMK A01 T00181044  RH  063%=      5-min Rain = 0
KRO1 100118Z 30004KT 02/M05 A3037 RMK A01 T00181045  RH  063%=      5-min Rain = 0
KRO1 100119Z 29004KT 02/M05 A3037 RMK A01 T00191045  RH  063%=      5-min Rain = 0
KRO1 100120Z 29004KT 02/M05 A3037 RMK A01 T00191045  RH  063%=      5-min Rain = 0
KRO1 100121Z 29004KT 02/M05 A3037 RMK A01 T00191045  RH  063%=      5-min Rain = 0
KRO1 100122Z 29004KT 02/M05 A3037 RMK A01 T00191045  RH  063%=      5-min Rain = 0
KRO1 100123Z 29004KT 02/M04 A3038 RMK A01 T00191044  RH  063%=      5-min Rain = 0
KRO1 100124Z 29004KT 02/M04 A3038 RMK A01 T00191043  RH  064%=      5-min Rain = 0
KRO1 100125Z 28004KT 02/M04 A3038 RMK A01 T00181043  RH  064%=      5-min Rain = 0
KRO1 100126Z 28003KT 02/M04 A3037 RMK A01 T00181043  RH  064%=      5-min Rain = 0
KRO1 100127Z 28003KT 02/M04 A3037 RMK A01 T00181043  RH  064%=      5-min Rain = 0
KRO1 100128Z 27003KT 02/M04 A3038 RMK A01 T00171043  RH  064%=      5-min Rain = 0
KRO1 100129Z 27003KT 02/M04 A3038 RMK A01 T00171042  RH  065%=      5-min Rain = 0
KRO1 100130Z 28004KT 02/M04 A3038 RMK A01 T00161043  RH  065%=      5-min Rain = 0
KRO1 100131Z 28004KT 02/M04 A3038 RMK A01 T00161043  RH  065%=      5-min Rain = 0
KRO1 100132Z 28004KT 02/M04 A3038 RMK A01 T00161042  RH  065%=      5-min Rain = 0
KRO1 100133Z 28004KT 02/M04 A3038 RMK A01 T00161041  RH  066%=      5-min Rain = 0
KRO1 100134Z 27004KT 02/M04 A3038 RMK A01 T00151039  RH  067%=      5-min Rain = 0
KRO1 100135Z 27004KT 01/M04 A3038 RMK A01 T00141038  RH  068%=      5-min Rain = 0
KRO1 100136Z 27004KT 01/M04 A3038 RMK A01 T00141037  RH  069%=      5-min Rain = 0
KRO1 100137Z 28004KT 01/M04 A3038 RMK A01 T00131037  RH  069%=      5-min Rain = 0
KRO1 100138Z 28005KT 01/M04 A3038 RMK A01 T00131037  RH  069%=      5-min Rain = 0
KRO1 100139Z 28005KT 01/M04 A3038 RMK A01 T00131036  RH  070%=      5-min Rain = 0
KRO1 100140Z 28005KT 01/M04 A3038 RMK A01 T00131036  RH  070%=      5-min Rain = 0
KRO1 100141Z 28005KT 01/M04 A3038 RMK A01 T00131035  RH  071%=      5-min Rain = 0
KRO1 100142Z 28006KT 01/M04 A3038 RMK A01 T00121035  RH  071%=      5-min Rain = 0
KRO1 100143Z 28006KT 01/M04 A3038 RMK A01 T00121035  RH  071%=      5-min Rain = 0
KRO1 100144Z 29006KT 01/M04 A3038 RMK A01 T00111036  RH  071%=      5-min Rain = 0
KRO1 100145Z 29006KT 01/M04 A3038 RMK A01 T00111036  RH  070%=      5-min Rain = 0
KRO1 100146Z 29006KT 01/M04 A3038 RMK A01 T00111037  RH  070%=      5-min Rain = 0
KRO1 100147Z 28006KT 01/M04 A3038 RMK A01 T00121038  RH  070%=      5-min Rain = 0
KRO1 100148Z 28006KT 01/M04 A3038 RMK A01 T00121037  RH  070%=      5-min Rain = 0
KRO1 100149Z 28006KT 01/M04 A3038 RMK A01 T00121037  RH  070%=      5-min Rain = 0
KRO1 100150Z 28005KT 01/M04 A3038 RMK A01 T00121037  RH  070%=      5-min Rain = 0
KRO1 100151Z 28005KT 01/M04 A3038 RMK A01 T00111038  RH  070%=      5-min Rain = 0
KRO1 100152Z 27005KT 01/M04 A3037 RMK A01 T00111038  RH  070%=      5-min Rain = 0
KRO1 100153Z 27005KT 01/M04 A3037 RMK A01 T00111039  RH  069%=      5-min Rain = 0
KRO1 100154Z 27005KT 01/M04 A3037 RMK A01 T00111039  RH  069%=      5-min Rain = 0
KRO1 100155Z 27005KT 01/M04 A3037 RMK A01 T00111039  RH  069%=      5-min Rain = 0
KRO1 100156Z 27005KT 01/M04 A3037 RMK A01 T00111039  RH  069%=      5-min Rain = 0
KRO1 100157Z 27005KT 01/M04 A3038 RMK A01 T00111039  RH  069%=      5-min Rain = 0
KRO1 100158Z 27006KT 01/M04 A3038 RMK A01 T00111039  RH  069%=      5-min Rain = 0
KRO1 100159Z 27006KT 01/M04 A3038 RMK A01 T00111038  RH  070%=      5-min Rain = 0
KRO1 100200Z 27006KT 01/M04 A3038 RMK A01 T00111038  RH  070%=      5-min Rain = 0
KRO1 100201Z 27006KT 01/M04 A3038 RMK A01 T00111038  RH  070%=      5-min Rain = 0
KRO1 100202Z 27006KT 01/M04 A3038 RMK A01 T00111037  RH  070%=      5-min Rain = 0
KRO1 100203Z 27006KT 01/M04 A3038 RMK A01 T00101037  RH  070%=      5-min Rain = 0
KRO1 100204Z 27006KT 01/M04 A3037 RMK A01 T00101038  RH  070%=      5-min Rain = 0
KRO1 100205Z 27006KT 01/M04 A3037 RMK A01 T00101038  RH  070%=      5-min Rain = 0
KRO1 100206Z 28006KT 01/M04 A3037 RMK A01 T00101039  RH  070%=      5-min Rain = 0
KRO1 100207Z 28006KT 01/M04 A3037 RMK A01 T00101040  RH  069%=      5-min Rain = 0
KRO1 100208Z 28007KT 01/M04 A3038 RMK A01 T00101041  RH  069%=      5-min Rain = 0
KRO1 100209Z 28007KT 01/M04 A3038 RMK A01 T00101042  RH  068%=      5-min Rain = 0
KRO1 100210Z 28007KT 01/M04 A3038 RMK A01 T00101042  RH  068%=      5-min Rain = 0
KRO1 100211Z 29007KT 01/M04 A3038 RMK A01 T00101043  RH  068%=      5-min Rain = 0
KRO1 100212Z 29007KT 01/M04 A3038 RMK A01 T00101043  RH  068%=      5-min Rain = 0
KRO1 100213Z 29007KT 01/M04 A3038 RMK A01 T00101044  RH  067%=      5-min Rain = 0
KRO1 100214Z 29007KT 01/M05 A3038 RMK A01 T00101045  RH  066%=      5-min Rain = 0
KRO1 100215Z 30008KT 01/M05 A3038 RMK A01 T00111046  RH  066%=      5-min Rain = 0
KRO1 100216Z 30008KT 01/M05 A3038 RMK A01 T00121046  RH  065%=      5-min Rain = 0
KRO1 100217Z 30008KT 01/M05 A3038 RMK A01 T00121046  RH  065%=      5-min Rain = 0
KRO1 100218Z 30008KT 01/M05 A3038 RMK A01 T00121046  RH  065%=      5-min Rain = 0
KRO1 100219Z 30007KT 01/M05 A3038 RMK A01 T00121047  RH  065%=      5-min Rain = 0
KRO1 100220Z 30007KT 01/M05 A3038 RMK A01 T00131047  RH  064%=      5-min Rain = 0
KRO1 100221Z 30007KT 01/M05 A3038 RMK A01 T00131048  RH  064%=      5-min Rain = 0
KRO1 100222Z 30008KT 01/M05 A3038 RMK A01 T00141048  RH  064%=      5-min Rain = 0
KRO1 100223Z 30008KT 01/M05 A3038 RMK A01 T00141048  RH  063%=      5-min Rain = 0
KRO1 100224Z 30008KT 02/M05 A3038 RMK A01 T00151048  RH  063%=      5-min Rain = 0
KRO1 100225Z 30008KT 02/M05 A3038 RMK A01 T00151048  RH  063%=      5-min Rain = 0
KRO1 100226Z 30008KT 02/M05 A3038 RMK A01 T00151048  RH  063%=      5-min Rain = 0
KRO1 100227Z 30008KT 02/M05 A3038 RMK A01 T00151049  RH  062%=      5-min Rain = 0
KRO1 100228Z 30008KT 02/M05 A3038 RMK A01 T00161049  RH  062%=      5-min Rain = 0
KRO1 100229Z 30008KT 02/M05 A3038 RMK A01 T00161049  RH  062%=      5-min Rain = 0
KRO1 100230Z 30008KT 02/M05 A3038 RMK A01 T00161049  RH  062%=      5-min Rain = 0
KRO1 100231Z 30008KT 02/M05 A3038 RMK A01 T00161049  RH  062%=      5-min Rain = 0
KRO1 100232Z 30008KT 02/M05 A3038 RMK A01 T00161049  RH  062%=      5-min Rain = 0
KRO1 100233Z 30008KT 02/M05 A3038 RMK A01 T00161049  RH  062%=      5-min Rain = 0
KRO1 100234Z 30008KT 02/M05 A3038 RMK A01 T00161048  RH  062%=      5-min Rain = 0
KRO1 100235Z 30008KT 02/M05 A3038 RMK A01 T00151048  RH  063%=      5-min Rain = 0
KRO1 100236Z 30008KT 02/M05 A3038 RMK A01 T00151047  RH  064%=      5-min Rain = 0
KRO1 100237Z 30008KT 01/M05 A3039 RMK A01 T00141047  RH  064%=      5-min Rain = 0
KRO1 100238Z 30008KT 01/M05 A3039 RMK A01 T00141046  RH  064%=      5-min Rain = 0
KRO1 100239Z 30008KT 01/M05 A3039 RMK A01 T00131046  RH  065%=      5-min Rain = 0
KRO1 100240Z 30008KT 01/M05 A3039 RMK A01 T00131046  RH  065%=      5-min Rain = 0
KRO1 100241Z 30008KT 01/M05 A3039 RMK A01 T00131046  RH  065%=      5-min Rain = 0
KRO1 100242Z 30008KT 01/M05 A3039 RMK A01 T00131046  RH  065%=      5-min Rain = 0
KRO1 100243Z 30009KT 01/M05 A3039 RMK A01 T00131047  RH  064%=      5-min Rain = 0
KRO1 100244Z 30009KT 01/M05 A3039 RMK A01 T00141047  RH  064%=      5-min Rain = 0
KRO1 100245Z 30008KT 01/M05 A3039 RMK A01 T00141048  RH  063%=      5-min Rain = 0
KRO1 100246Z 30008KT 02/M05 A3039 RMK A01 T00151048  RH  063%=      5-min Rain = 0
KRO1 100247Z 30008KT 02/M05 A3039 RMK A01 T00151048  RH  063%=      5-min Rain = 0
KRO1 100248Z 29008KT 02/M05 A3039 RMK A01 T00151049  RH  062%=      5-min Rain = 0
KRO1 100249Z 29008KT 02/M05 A3039 RMK A01 T00161049  RH  062%=      5-min Rain = 0
KRO1 100250Z 29008KT 02/M05 A3039 RMK A01 T00161049  RH  062%=      5-min Rain = 0
KRO1 100251Z 29008KT 02/M05 A3039 RMK A01 T00161048  RH  063%=      5-min Rain = 0
KRO1 100252Z 30008KT 02/M05 A3039 RMK A01 T00161047  RH  063%=      5-min Rain = 0
KRO1 100253Z 30008KT 02/M05 A3039 RMK A01 T00151046  RH  064%=      5-min Rain = 0
KRO1 100254Z 30008KT 02/M05 A3039 RMK A01 T00151046  RH  064%=      5-min Rain = 0
KRO1 100255Z 30008KT 02/M05 A3039 RMK A01 T00161045  RH  064%=      5-min Rain = 0
KRO1 100256Z 30008KT 02/M05 A3039 RMK A01 T00151045  RH  064%=      5-min Rain = 0
KRO1 100257Z 30008KT 02/M05 A3039 RMK A01 T00161045  RH  064%=      5-min Rain = 0
KRO1 100258Z 30008KT 02/M05 A3039 RMK A01 T00151045  RH  065%=      5-min Rain = 0
KRO1 100259Z 30008KT 02/M04 A3039 RMK A01 T00151044  RH  065%=      5-min Rain = 0
KRO1 100300Z 30008KT 01/M04 A3039 RMK A01 T00141044  RH  065%=      5-min Rain = 0
KRO1 100301Z 30008KT 01/M04 A3039 RMK A01 T00131044  RH  066%=      5-min Rain = 0
KRO1 100302Z 30007KT 01/M04 A3039 RMK A01 T00131043  RH  066%=      5-min Rain = 0
KRO1 100303Z 30007KT 01/M04 A3039 RMK A01 T00121043  RH  066%=      5-min Rain = 0
KRO1 100304Z 30007KT 01/M04 A3039 RMK A01 T00121043  RH  067%=      5-min Rain = 0
KRO1 100305Z 30007KT 01/M04 A3039 RMK A01 T00111043  RH  067%=      5-min Rain = 0
KRO1 100306Z 30007KT 01/M04 A3039 RMK A01 T00101043  RH  068%=      5-min Rain = 0
KRO1 100307Z 29006KT 01/M04 A3039 RMK A01 T00101043  RH  068%=      5-min Rain = 0
KRO1 100308Z 29006KT 01/M04 A3039 RMK A01 T00091043  RH  068%=      5-min Rain = 0
KRO1 100309Z 29006KT 01/M04 A3039 RMK A01 T00091042  RH  069%=      5-min Rain = 0
KRO1 100310Z 29006KT 01/M04 A3039 RMK A01 T00081040  RH  070%=      5-min Rain = 0
KRO1 100311Z 29006KT 01/M04 A3039 RMK A01 T00081040  RH  071%=      5-min Rain = 0
KRO1 100312Z 30007KT 01/M04 A3039 RMK A01 T00081040  RH  071%=      5-min Rain = 0
KRO1 100313Z 30007KT 01/M04 A3039 RMK A01 T00081041  RH  070%=      5-min Rain = 0
KRO1 100314Z 30007KT 01/M04 A3039 RMK A01 T00081041  RH  070%=      5-min Rain = 0
KRO1 100315Z 29007KT 01/M04 A3039 RMK A01 T00081041  RH  070%=      5-min Rain = 0
KRO1 100316Z 29007KT 01/M04 A3039 RMK A01 T00081042  RH  069%=      5-min Rain = 0
KRO1 100317Z 29007KT 01/M04 A3039 RMK A01 T00091041  RH  069%=      5-min Rain = 0
KRO1 100318Z 29007KT 01/M04 A3039 RMK A01 T00091042  RH  069%=      5-min Rain = 0
KRO1 100319Z 30007KT 01/M04 A3039 RMK A01 T00101042  RH  069%=      5-min Rain = 0
KRO1 100320Z 30007KT 01/M04 A3039 RMK A01 T00101042  RH  068%=      5-min Rain = 0
KRO1 100321Z 29007KT 01/M04 A3039 RMK A01 T00101042  RH  068%=      5-min Rain = 0
KRO1 100322Z 29007KT 01/M04 A3039 RMK A01 T00101043  RH  068%=      5-min Rain = 0
KRO1 100323Z 29007KT 01/M04 A3039 RMK A01 T00111042  RH  068%=      5-min Rain = 0
KRO1 100324Z 28006KT 01/M04 A3039 RMK A01 T00111043  RH  068%=      5-min Rain = 0
KRO1 100325Z 28006KT 01/M04 A3039 RMK A01 T00111042  RH  068%=      5-min Rain = 0
KRO1 100326Z 28006KT 01/M04 A3039 RMK A01 T00111042  RH  068%=      5-min Rain = 0
KRO1 100327Z 28006KT 01/M04 A3039 RMK A01 T00101042  RH  068%=      5-min Rain = 0
KRO1 100328Z 28006KT 01/M04 A3039 RMK A01 T00101043  RH  068%=      5-min Rain = 0
KRO1 100329Z 28007KT 01/M04 A3039 RMK A01 T00091042  RH  069%=      5-min Rain = 0
KRO1 100330Z 28007KT 01/M04 A3039 RMK A01 T00091041  RH  069%=      5-min Rain = 0
KRO1 100331Z 29007KT 01/M04 A3039 RMK A01 T00091041  RH  070%=      5-min Rain = 0
KRO1 100332Z 29007KT 01/M04 A3039 RMK A01 T00081040  RH  070%=      5-min Rain = 0
KRO1 100333Z 29007KT 01/M04 A3039 RMK A01 T00081039  RH  071%=      5-min Rain = 0
KRO1 100334Z 28007KT 01/M04 A3039 RMK A01 T00071040  RH  070%=      5-min Rain = 0
KRO1 100335Z 28007KT 01/M04 A3039 RMK A01 T00071041  RH  070%=      5-min Rain = 0
KRO1 100336Z 28007KT 01/M04 A3039 RMK A01 T00081041  RH  070%=      5-min Rain = 0
KRO1 100337Z 29007KT 01/M04 A3039 RMK A01 T00081040  RH  070%=      5-min Rain = 0
KRO1 100338Z 29007KT 01/M04 A3039 RMK A01 T00081040  RH  070%=      5-min Rain = 0
KRO1 100339Z 29007KT 01/M04 A3039 RMK A01 T00081040  RH  070%=      5-min Rain = 0
KRO1 100340Z 30007KT 01/M04 A3039 RMK A01 T00081042  RH  069%=      5-min Rain = 0
KRO1 100341Z 30007KT 01/M04 A3039 RMK A01 T00091043  RH  068%=      5-min Rain = 0
KRO1 100342Z 30007KT 01/M04 A3039 RMK A01 T00091044  RH  068%=      5-min Rain = 0
KRO1 100343Z 30007KT 01/M04 A3039 RMK A01 T00101044  RH  067%=      5-min Rain = 0
KRO1 100344Z 30007KT 01/M04 A3039 RMK A01 T00111044  RH  067%=      5-min Rain = 0
KRO1 100345Z 29007KT 01/M04 A3039 RMK A01 T00111043  RH  067%=      5-min Rain = 0
KRO1 100346Z 30007KT 01/M04 A3039 RMK A01 T00111043  RH  067%=      5-min Rain = 0
KRO1 100347Z 29007KT 01/M04 A3039 RMK A01 T00111042  RH  068%=      5-min Rain = 0
KRO1 100348Z 29007KT 01/M04 A3039 RMK A01 T00111042  RH  068%=      5-min Rain = 0
KRO1 100349Z 29006KT 01/M04 A3039 RMK A01 T00101042  RH  068%=      5-min Rain = 0
KRO1 100350Z 28007KT 01/M04 A3039 RMK A01 T00101042  RH  069%=      5-min Rain = 0
KRO1 100351Z 28007KT 01/M04 A3039 RMK A01 T00091042  RH  069%=      5-min Rain = 0
KRO1 100352Z 28007KT 01/M04 A3039 RMK A01 T00081042  RH  069%=      5-min Rain = 0
KRO1 100353Z 28007KT 01/M04 A3039 RMK A01 T00081042  RH  069%=      5-min Rain = 0
KRO1 100354Z 28007KT 01/M04 A3039 RMK A01 T00081042  RH  069%=      5-min Rain = 0
KRO1 100355Z 28007KT 01/M04 A3039 RMK A01 T00081042  RH  069%=      5-min Rain = 0
KRO1 100356Z 28006KT 01/M04 A3039 RMK A01 T00081042  RH  069%=      5-min Rain = 0
KRO1 100357Z 28006KT 01/M04 A3039 RMK A01 T00081041  RH  069%=      5-min Rain = 0
KRO1 100358Z 28007KT 01/M04 A3039 RMK A01 T00081041  RH  070%=      5-min Rain = 0
KRO1 100359Z 28007KT 01/M04 A3039 RMK A01 T00081041  RH  070%=      5-min Rain = 0
KRO1 100400Z 28007KT 01/M04 A3039 RMK A01 T00071041  RH  070%=      5-min Rain = 0
KRO1 100401Z 28007KT 01/M04 A3039 RMK A01 T00071041  RH  070%=      5-min Rain = 0
KRO1 100402Z 28007KT 01/M04 A3039 RMK A01 T00071041  RH  070%=      5-min Rain = 0
KRO1 100403Z 28007KT 01/M04 A3039 RMK A01 T00071040  RH  071%=      5-min Rain = 0
KRO1 100404Z 28007KT 01/M04 A3039 RMK A01 T00071040  RH  071%=      5-min Rain = 0
KRO1 100405Z 28007KT 01/M04 A3039 RMK A01 T00071040  RH  071%=      5-min Rain = 0
KRO1 100406Z 28007KT 01/M04 A3039 RMK A01 T00071040  RH  071%=      5-min Rain = 0
KRO1 100407Z 28006KT 01/M04 A3039 RMK A01 T00071041  RH  070%=      5-min Rain = 0
KRO1 100408Z 28006KT 01/M04 A3039 RMK A01 T00071042  RH  070%=      5-min Rain = 0
KRO1 100409Z 28006KT 01/M04 A3039 RMK A01 T00081042  RH  070%=      5-min Rain = 0
KRO1 100410Z 28007KT 01/M04 A3039 RMK A01 T00081042  RH  069%=      5-min Rain = 0
KRO1 100411Z 28007KT 01/M04 A3039 RMK A01 T00071042  RH  069%=      5-min Rain = 0
KRO1 100412Z 28007KT 01/M04 A3039 RMK A01 T00081042  RH  069%=      5-min Rain = 0
KRO1 100413Z 28007KT 01/M04 A3039 RMK A01 T00081042  RH  069%=      5-min Rain = 0
KRO1 100414Z 28007KT 01/M04 A3039 RMK A01 T00081042  RH  069%=      5-min Rain = 0
KRO1 100415Z 28007KT 01/M04 A3039 RMK A01 T00081042  RH  069%=      5-min Rain = 0
KRO1 100416Z 28008KT 01/M04 A3039 RMK A01 T00081043  RH  069%=      5-min Rain = 0
KRO1 100417Z 28008KT 01/M04 A3039 RMK A01 T00071043  RH  069%=      5-min Rain = 0
KRO1 100418Z 28008KT 01/M04 A3039 RMK A01 T00071043  RH  069%=      5-min Rain = 0
KRO1 100419Z 28008KT 01/M04 A3039 RMK A01 T00071043  RH  069%=      5-min Rain = 0
KRO1 100420Z 28008KT 01/M04 A3039 RMK A01 T00071043  RH  069%=      5-min Rain = 0
KRO1 100421Z 28008KT 01/M04 A3039 RMK A01 T00071043  RH  070%=      5-min Rain = 0
KRO1 100422Z 28008KT 01/M04 A3039 RMK A01 T00071043  RH  070%=      5-min Rain = 0
KRO1 100423Z 29008KT 01/M04 A3039 RMK A01 T00071043  RH  070%=      5-min Rain = 0
KRO1 100424Z 28008KT 01/M04 A3039 RMK A01 T00071043  RH  070%=      5-min Rain = 0
KRO1 100425Z 29008KT 01/M04 A3039 RMK A01 T00071043  RH  069%=      5-min Rain = 0
KRO1 100426Z 29008KT 01/M04 A3039 RMK A01 T00071043  RH  069%=      5-min Rain = 0
KRO1 100427Z 29008KT 01/M04 A3039 RMK A01 T00071043  RH  069%=      5-min Rain = 0
KRO1 100428Z 29008KT 01/M04 A3039 RMK A01 T00081043  RH  069%=      5-min Rain = 0
KRO1 100429Z 29008KT 01/M04 A3039 RMK A01 T00081044  RH  068%=      5-min Rain = 0
KRO1 100430Z 29008KT 01/M04 A3039 RMK A01 T00081043  RH  069%=      5-min Rain = 0
KRO1 100431Z 29008KT 01/M04 A3039 RMK A01 T00081043  RH  069%=      5-min Rain = 0
KRO1 100432Z 28008KT 01/M04 A3039 RMK A01 T00081043  RH  069%=      5-min Rain = 0
KRO1 100433Z 28008KT 01/M04 A3039 RMK A01 T00081042  RH  069%=      5-min Rain = 0
KRO1 100434Z 28008KT 01/M04 A3039 RMK A01 T00081042  RH  070%=      5-min Rain = 0
KRO1 100435Z 28008KT 01/M04 A3039 RMK A01 T00071042  RH  069%=      5-min Rain = 0
KRO1 100436Z 28008KT 01/M04 A3039 RMK A01 T00071042  RH  070%=      5-min Rain = 0
KRO1 100437Z 28008KT 01/M04 A3039 RMK A01 T00071042  RH  070%=      5-min Rain = 0
KRO1 100438Z 28008KT 01/M04 A3039 RMK A01 T00061042  RH  070%=      5-min Rain = 0
KRO1 100439Z 28008KT 01/M04 A3039 RMK A01 T00061041  RH  071%=      5-min Rain = 0
KRO1 100440Z 27008KT 01/M04 A3039 RMK A01 T00051041  RH  071%=      5-min Rain = 0
KRO1 100441Z 27007KT 01/M04 A3039 RMK A01 T00051041  RH  071%=      5-min Rain = 0
KRO1 100442Z 27007KT 01/M04 A3039 RMK A01 T00051040  RH  071%=      5-min Rain = 0
KRO1 100443Z 27007KT 01/M04 A3039 RMK A01 T00051040  RH  071%=      5-min Rain = 0
KRO1 100444Z 27007KT 01/M04 A3039 RMK A01 T00051040  RH  072%=      5-min Rain = 0
KRO1 100445Z 27007KT 01/M04 A3039 RMK A01 T00051040  RH  072%=      5-min Rain = 0
KRO1 100446Z 27007KT 01/M04 A3038 RMK A01 T00051039  RH  072%=      5-min Rain = 0
KRO1 100447Z 28008KT 01/M04 A3038 RMK A01 T00051039  RH  072%=      5-min Rain = 0
KRO1 100448Z 28008KT 01/M04 A3038 RMK A01 T00051038  RH  073%=      5-min Rain = 0
KRO1 100449Z 28008KT 01/M04 A3038 RMK A01 T00051038  RH  073%=      5-min Rain = 0
KRO1 100450Z 28008KT 01/M04 A3038 RMK A01 T00051038  RH  073%=      5-min Rain = 0
KRO1 100451Z 28008KT 01/M04 A3038 RMK A01 T00051038  RH  073%=      5-min Rain = 0
KRO1 100452Z 28008KT 01/M04 A3038 RMK A01 T00061038  RH  073%=      5-min Rain = 0
KRO1 100453Z 28009KT 01/M04 A3038 RMK A01 T00061038  RH  073%=      5-min Rain = 0
KRO1 100454Z 28009KT 01/M04 A3039 RMK A01 T00061037  RH  073%=      5-min Rain = 0
KRO1 100455Z 28008KT 01/M04 A3039 RMK A01 T00061037  RH  073%=      5-min Rain = 0
KRO1 100456Z 28009KT 01/M04 A3039 RMK A01 T00061037  RH  073%=      5-min Rain = 0
KRO1 100457Z 28008KT 01/M04 A3039 RMK A01 T00061037  RH  073%=      5-min Rain = 0
KRO1 100458Z 28009KT 01/M04 A3039 RMK A01 T00061037  RH  073%=      5-min Rain = 0
KRO1 100459Z 28008KT 01/M04 A3039 RMK A01 T00051037  RH  073%=      5-min Rain = 0
KRO1 100500Z 28008KT 01/M04 A3039 RMK A01 T00051037  RH  073%=      5-min Rain = 0
KRO1 100501Z 28008KT 01/M04 A3039 RMK A01 T00051036  RH  074%=      5-min Rain = 0
KRO1 100502Z 29009KT 01/M04 A3039 RMK A01 T00051037  RH  074%=      5-min Rain = 0
KRO1 100503Z 29009KT 01/M04 A3039 RMK A01 T00051037  RH  074%=      5-min Rain = 0
KRO1 100504Z 29009KT 01/M04 A3039 RMK A01 T00051036  RH  074%=      5-min Rain = 0
KRO1 100505Z 29009KT 01/M04 A3039 RMK A01 T00061036  RH  074%=      5-min Rain = 0
KRO1 100506Z 29009KT 01/M04 A3039 RMK A01 T00061035  RH  074%=      5-min Rain = 0
KRO1 100507Z 29009KT 01/M04 A3039 RMK A01 T00061035  RH  074%=      5-min Rain = 0
KRO1 100508Z 29009KT 01/M04 A3039 RMK A01 T00061036  RH  074%=      5-min Rain = 0
KRO1 100509Z 29009KT 01/M04 A3039 RMK A01 T00071035  RH  073%=      5-min Rain = 0
KRO1 100510Z 29008KT 01/M04 A3039 RMK A01 T00071035  RH  073%=      5-min Rain = 0
KRO1 100511Z 29009KT 01/M04 A3039 RMK A01 T00071035  RH  074%=      5-min Rain = 0
KRO1 100512Z 29008KT 01/M04 A3039 RMK A01 T00061035  RH  074%=      5-min Rain = 0
KRO1 100513Z 29008KT 01/M03 A3039 RMK A01 T00061034  RH  075%=      5-min Rain = 0
KRO1 100514Z 29008KT 01/M03 A3039 RMK A01 T00051034  RH  075%=      5-min Rain = 0
KRO1 100515Z 29009KT 01/M03 A3039 RMK A01 T00051034  RH  075%=      5-min Rain = 0
KRO1 100516Z 29009KT 01/M03 A3039 RMK A01 T00051034  RH  075%=      5-min Rain = 0
KRO1 100517Z 29009KT 01/M03 A3039 RMK A01 T00051034  RH  075%=      5-min Rain = 0
KRO1 100518Z 29009KT 01/M03 A3039 RMK A01 T00051034  RH  075%=      5-min Rain = 0
KRO1 100519Z 29009KT 01/M03 A3039 RMK A01 T00051034  RH  075%=      5-min Rain = 0
KRO1 100520Z 29009KT 00/M03 A3039 RMK A01 T00041034  RH  075%=      5-min Rain = 0
KRO1 100521Z 29009KT 01/M03 A3039 RMK A01 T00051034  RH  075%=      5-min Rain = 0
KRO1 100522Z 29009KT 00/M03 A3039 RMK A01 T00041034  RH  076%=      5-min Rain = 0
KRO1 100523Z 29009KT 00/M03 A3039 RMK A01 T00041034  RH  076%=      5-min Rain = 0
KRO1 100524Z 29009KT 00/M03 A3039 RMK A01 T00041034  RH  076%=      5-min Rain = 0
KRO1 100525Z 29009KT 00/M03 A3039 RMK A01 T00041034  RH  076%=      5-min Rain = 0
KRO1 100526Z 29009KT 00/M03 A3039 RMK A01 T00041034  RH  076%=      5-min Rain = 0
KRO1 100527Z 29009KT 00/M03 A3039 RMK A01 T00041034  RH  076%=      5-min Rain = 0
KRO1 100528Z 29010KT 00/M03 A3039 RMK A01 T00041034  RH  076%=      5-min Rain = 0
KRO1 100529Z 29010KT 00/M03 A3039 RMK A01 T00041034  RH  076%=      5-min Rain = 0
KRO1 100530Z 29010KT 00/M03 A3039 RMK A01 T00041034  RH  076%=      5-min Rain = 0
KRO1 100531Z 29010KT 00/M03 A3039 RMK A01 T00041034  RH  076%=      5-min Rain = 0
KRO1 100532Z 29010KT 00/M03 A3039 RMK A01 T00041033  RH  076%=      5-min Rain = 0
KRO1 100533Z 29010KT 00/M03 A3039 RMK A01 T00031033  RH  076%=      5-min Rain = 0
KRO1 100534Z 28010KT 00/M03 A3039 RMK A01 T00031033  RH  077%=      5-min Rain = 0
KRO1 100535Z 28010KT 00/M03 A3039 RMK A01 T00031033  RH  077%=      5-min Rain = 0
KRO1 100536Z 28010KT 00/M03 A3039 RMK A01 T00031033  RH  077%=      5-min Rain = 0
KRO1 100537Z 28010KT 00/M03 A3039 RMK A01 T00031032  RH  077%=      5-min Rain = 0
KRO1 100538Z 28010KT 00/M03 A3039 RMK A01 T00021032  RH  077%=      5-min Rain = 0
KRO1 100539Z 28010KT 00/M03 A3039 RMK A01 T00031032  RH  078%=      5-min Rain = 0
KRO1 100540Z 28009KT 00/M03 A3039 RMK A01 T00021032  RH  078%=      5-min Rain = 0
KRO1 100541Z 28009KT 00/M03 A3039 RMK A01 T00031031  RH  078%=      5-min Rain = 0
KRO1 100542Z 28009KT 00/M03 A3039 RMK A01 T00031031  RH  078%=      5-min Rain = 0
KRO1 100543Z 28009KT 00/M03 A3039 RMK A01 T00021031  RH  078%=      5-min Rain = 0
KRO1 100544Z 28009KT 00/M03 A3039 RMK A01 T00031031  RH  078%=      5-min Rain = 0
KRO1 100545Z 28009KT 00/M03 A3039 RMK A01 T00031031  RH  078%=      5-min Rain = 0
KRO1 100546Z 28009KT 00/M03 A3039 RMK A01 T00021031  RH  078%=      5-min Rain = 0
KRO1 100547Z 28009KT 00/M03 A3039 RMK A01 T00021031  RH  078%=      5-min Rain = 0
KRO1 100548Z 28008KT 00/M03 A3039 RMK A01 T00021031  RH  078%=      5-min Rain = 0
KRO1 100549Z 28008KT 00/M03 A3039 RMK A01 T00021031  RH  078%=      5-min Rain = 0
KRO1 100550Z 28008KT 00/M03 A3039 RMK A01 T00021030  RH  079%=      5-min Rain = 0
KRO1 100551Z 28008KT 00/M03 A3039 RMK A01 T00021030  RH  079%=      5-min Rain = 0
KRO1 100552Z 28008KT 00/M03 A3039 RMK A01 T00011030  RH  079%=      5-min Rain = 0
KRO1 100553Z 28007KT 00/M03 A3039 RMK A01 T00011030  RH  079%=      5-min Rain = 0
KRO1 100554Z 28007KT 00/M03 A3039 RMK A01 T00011030  RH  079%=      5-min Rain = 0
KRO1 100555Z 27007KT 00/M03 A3039 RMK A01 T00011030  RH  080%=      5-min Rain = 0
KRO1 100556Z 27007KT 00/M03 A3039 RMK A01 T00011030  RH  080%=      5-min Rain = 0
KRO1 100557Z 27007KT 00/M03 A3039 RMK A01 T00011030  RH  080%=      5-min Rain = 0
KRO1 100558Z 27007KT 00/M03 A3039 RMK A01 T00011030  RH  080%=      5-min Rain = 0
KRO1 100559Z 27007KT 00/M03 A3039 RMK A01 T00011030  RH  080%=      5-min Rain = 0

Page generated in 0.1882 seconds.